GFSCGP_850_spd_021.txt.gz
Wind_Speed
12 5 4 4 3 4 5 4 9 5 6 2 3 4 5 11 7 5 11 34 33 32 24 20 18 15 10 8 6 7 8 6 4 4 5 5 5 3 5 9 11 11 12 17
3 4 4 1 2 3 5 7 6 4 4 3 3 5 4 10 9 27 31 33 32 26 22 19 15 13 11 8 6 6 3 1 3 3 3 4 5 3 4 6 6 9 12 15
6 3 2 4 7 9 9 6 5 3 6 3 3 2 6 6 23 31 32 31 26 25 22 16 15 14 10 8 5 3 4 4 1 2 3 5 8 10 12 14 19 21 23 23
7 4 4 5 8 7 5 6 5 6 5 2 4 1 2 8 12 20 28 30 29 26 21 16 11 9 9 9 7 8 8 12 15 16 17 16 16 15 14 15 18 21 24 25
2 5 7 9 4 4 2 2 3 3 4 3 7 3 3 8 11 12 21 25 23 20 17 14 8 5 6 6 7 6 6 12 14 16 17 17 12 12 13 16 20 22 22 25
5 10 4 4 4 2 5 4 6 4 2 2 7 4 2 5 11 7 18 19 18 15 12 7 6 6 5 5 7 5 2 5 11 7 5 9 12 15 18 22 26 28 30 30
3 4 3 3 4 1 3 6 4 4 4 3 4 6 2 6 10 19 19 24 22 18 14 14 15 10 7 4 2 1 7 8 10 15 18 16 16 19 20 22 25 29 29 24
5 2 5 6 5 2 4 4 4 1 1 4 3 3 1 10 25 25 23 17 11 9 8 6 4 2 4 2 4 9 13 14 15 14 15 18 20 19 20 22 26 27 21 22
4 3 4 6 4 3 5 5 1 5 2 3 1 3 5 8 9 15 12 15 17 15 13 11 8 8 3 3 6 9 7 7 11 14 13 13 15 20 23 26 26 24 19 23
5 4 2 3 2 4 5 2 5 4 2 2 3 4 3 5 4 3 3 9 12 16 16 13 9 6 5 8 10 12 13 15 13 13 14 16 20 22 23 23 24 20 23 33
4 4 3 2 4 4 4 2 4 2 4 4 1 3 3 5 4 3 12 15 14 16 14 11 8 8 10 13 14 16 17 16 12 14 19 26 25 23 22 24 26 29 31 34
3 4 3 3 2 2 0 3 4 4 3 1 4 5 3 9 17 14 14 18 15 12 10 9 9 7 11 17 19 18 13 13 18 24 26 27 28 23 24 26 29 32 29 27
3 2 3 4 4 4 1 4 4 5 3 5 5 5 2 5 10 4 14 15 10 7 7 6 7 12 21 20 16 15 16 23 28 28 30 26 26 29 28 29 31 28 25 24
3 2 5 5 3 1 2 5 4 6 3 3 6 7 9 5 4 13 16 14 12 11 8 8 14 20 16 16 16 19 22 23 27 32 24 25 31 28 30 30 23 25 26 21
3 3 4 4 5 4 3 5 7 5 5 4 7 4 8 7 9 13 12 13 11 9 11 18 19 16 17 16 18 20 22 27 26 26 31 35 31 30 26 29 42 26 19 14
4 1 2 1 6 7 4 7 8 8 2 3 5 4 9 14 16 17 11 11 10 11 15 17 15 15 18 21 22 24 23 17 20 27 31 30 31 24 30 33 19 15 15 11
3 4 3 2 4 5 4 4 5 4 3 3 2 1 11 12 15 12 10 9 9 13 16 15 16 17 19 23 22 13 17 23 27 27 28 28 34 35 28 25 26 12 9 11
4 3 3 2 4 2 5 2 5 6 4 6 8 9 16 12 11 10 8 8 11 14 13 16 17 20 21 15 16 21 25 28 27 28 29 32 33 31 32 30 22 10 13 11
4 4 3 3 1 6 5 3 4 4 3 6 6 9 11 9 9 9 7 12 8 10 14 15 19 19 18 20 22 26 28 26 27 24 27 31 35 40 35 25 20 22 9 12
7 6 4 2 4 6 6 5 7 2 3 6 8 9 7 11 2 4 12 6 9 11 15 17 19 19 22 22 26 27 28 24 22 24 29 31 34 25 26 15 15 11 9 14
3 1 5 3 3 7 8 6 5 5 6 3 7 6 3 1 4 7 8 7 11 14 16 17 20 21 22 27 31 27 20 23 26 30 34 35 24 22 12 12 10 11 15 17
7 7 4 3 3 7 11 5 8 6 6 9 8 2 1 2 3 8 5 11 14 15 17 19 21 22 26 27 21 18 24 25 28 33 33 25 22 17 16 15 12 9 12 16
2 7 6 8 6 10 9 9 8 8 7 8 4 0 1 2 5 4 10 13 15 17 20 21 22 27 23 17 22 23 25 28 34 32 25 24 15 13 10 11 8 13 17 20
3 13 3 4 7 10 10 12 11 10 12 7 1 3 4 3 6 8 10 13 15 17 17 20 23 21 22 23 23 27 31 35 33 27 25 15 11 11 12 13 16 18 19 20
6 3 1 3 3 2 9 9 14 10 6 3 4 6 2 3 5 8 11 14 17 19 22 22 23 24 26 28 31 32 30 28 29 24 23 15 15 16 16 16 12 15 19 20
5 5 3 5 5 6 10 11 7 5 5 10 5 4 1 4 6 10 14 17 19 22 25 26 27 28 29 32 35 25 25 25 26 24 21 18 16 10 10 13 13 14 15 13

GFSCGP_850_spd_024.txt.gz
Wind_Speed
6 5 3 6 5 4 5 5 7 2 1 4 5 3 3 8 10 24 30 33 36 36 32 30 30 27 24 21 20 15 14 15 15 14 12 9 9 4 2 3 3 7 10 13
6 3 5 5 6 7 5 8 4 5 7 4 6 5 5 9 12 29 35 35 36 31 27 23 19 18 17 18 16 15 13 11 9 5 4 2 0 3 5 8 10 13 17 21
6 4 2 6 6 7 5 5 3 2 3 3 8 5 6 9 24 24 27 30 28 26 25 21 17 14 12 10 9 10 11 10 8 4 1 3 6 10 14 18 21 24 26 27
4 5 7 6 5 1 2 3 3 2 4 2 3 1 5 6 9 11 19 28 28 26 22 18 15 12 8 8 7 6 7 9 10 10 12 14 15 17 22 22 20 20 22 25
2 5 7 6 0 1 3 2 1 1 3 4 6 6 4 6 10 9 16 27 25 22 18 16 12 10 8 6 6 8 10 11 12 15 15 14 15 16 16 15 18 21 27 30
4 4 3 2 3 0 1 2 7 4 3 3 5 5 4 4 7 8 11 24 24 18 15 12 9 6 5 4 4 2 4 6 9 12 15 15 16 16 18 20 24 27 30 31
5 3 4 4 4 6 7 5 3 4 4 3 5 5 2 6 8 11 15 21 21 18 11 8 7 5 3 3 2 2 7 9 9 11 14 15 16 16 18 17 21 28 28 27
4 3 4 6 2 1 3 5 5 4 2 3 5 3 1 5 24 25 23 19 14 14 13 12 12 11 8 5 1 4 10 14 17 20 21 20 20 22 23 27 31 32 30 27
4 1 1 1 1 2 3 4 4 6 3 3 1 3 2 6 10 18 8 9 12 10 12 14 18 13 9 4 5 7 9 12 15 18 18 18 21 26 30 31 30 31 29 26
3 4 2 2 5 7 5 2 4 4 2 1 3 2 4 5 6 6 9 14 16 18 16 13 10 6 4 6 8 12 14 14 12 12 16 21 27 29 31 33 31 32 31 28
2 4 4 4 2 1 4 3 5 4 3 4 2 4 4 7 5 8 16 21 18 16 13 9 6 3 4 8 15 13 11 7 11 18 23 25 29 32 30 27 27 30 31 30
2 5 3 1 3 2 2 3 4 4 2 2 3 4 4 10 16 20 22 19 15 14 13 11 3 6 12 14 12 12 10 14 19 22 25 28 29 27 33 33 32 32 32 32
2 2 3 6 6 5 3 1 5 6 3 5 5 5 9 6 10 15 17 17 16 13 7 2 5 12 14 11 9 8 12 15 18 20 21 20 24 28 32 32 31 32 30 19
2 3 5 6 4 3 3 2 4 5 3 3 6 6 4 5 11 15 15 13 13 6 2 6 11 11 7 8 11 16 18 20 23 24 17 20 28 29 26 23 23 29 35 38
3 3 1 2 4 2 1 2 2 4 5 5 6 6 4 5 7 10 11 12 7 3 6 11 10 8 8 11 16 14 17 19 19 20 25 29 29 26 33 25 26 28 29 24
4 1 2 1 5 6 3 5 5 4 3 4 6 3 5 13 8 9 11 8 5 5 9 6 6 8 10 14 14 14 13 17 24 28 29 28 28 33 33 34 36 32 26 22
3 4 3 3 4 5 5 6 3 1 3 4 5 5 9 4 8 11 9 5 2 5 4 7 9 11 11 11 10 15 20 25 25 24 23 24 31 33 37 40 29 24 23 10
4 4 3 2 3 1 5 5 5 6 3 8 9 7 9 8 9 10 6 1 2 2 6 8 10 10 10 12 16 19 22 18 19 21 25 30 33 37 39 26 19 15 10 9
4 5 3 3 3 5 2 4 5 6 5 5 9 10 9 16 12 5 1 2 1 4 7 7 10 11 13 15 18 22 20 20 21 26 29 30 33 33 22 11 10 10 6 6
6 6 4 3 4 6 5 3 10 8 4 11 13 14 11 12 2 4 1 1 1 4 3 7 11 15 19 22 25 27 23 19 25 28 27 32 28 22 13 12 8 9 6 9
2 3 4 2 2 7 7 5 8 5 7 16 17 16 13 5 5 4 3 2 1 2 7 12 17 20 21 25 27 23 18 24 27 26 30 25 21 18 11 11 10 9 9 6
7 7 4 3 2 8 14 6 7 6 13 15 15 13 8 5 6 3 4 1 1 5 10 14 16 19 21 20 20 23 26 27 29 31 27 22 23 15 12 10 10 7 7 12
2 7 5 9 6 6 16 9 18 11 13 16 17 12 7 9 7 6 3 1 4 8 12 14 18 19 17 21 24 25 27 30 32 28 26 23 16 11 10 10 12 13 14 15
4 8 3 3 6 15 13 12 13 15 14 15 11 8 8 6 6 6 2 4 9 12 17 20 21 22 22 23 25 27 29 31 24 25 26 23 17 15 14 14 14 13 14 16
5 7 5 4 4 5 9 11 14 12 12 11 7 8 9 12 7 3 4 8 12 17 19 20 21 21 23 25 27 30 32 23 19 23 24 21 16 14 9 7 10 13 15 14
7 7 4 6 7 8 9 16 16 14 12 8 15 13 11 6 3 4 8 13 16 18 19 20 19 21 23 25 29 30 27 20 22 22 17 19 15 12 7 8 12 12 11 9

GFSCGP_850_spd_027.txt.gz
Wind_Speed
5 6 0 3 1 3 2 2 3 3 1 5 3 6 8 4 18 21 20 22 24 24 22 21 20 17 19 23 23 19 13 9 7 7 7 8 7 3 3 5 7 10 13 16
7 2 0 7 5 5 5 6 3 1 5 6 6 8 11 12 9 18 26 28 33 33 29 27 26 22 18 16 8 7 6 5 3 3 1 1 2 5 7 11 14 18 21 25
4 3 5 6 6 8 4 4 3 3 4 6 5 6 7 7 19 21 22 28 29 27 26 22 18 12 11 14 14 12 11 7 4 1 3 5 9 12 14 17 20 20 22 24
5 5 5 6 6 4 2 1 3 3 4 3 3 2 4 4 7 10 19 23 24 25 21 18 15 16 14 13 11 8 7 7 7 9 10 10 12 15 16 17 18 20 23 27
2 3 5 6 1 3 3 2 3 3 3 3 4 5 2 5 2 4 11 21 24 23 21 20 18 16 13 8 5 4 3 1 3 6 11 12 12 13 14 14 16 22 29 30
3 2 3 2 2 1 1 4 6 4 3 3 3 4 4 6 6 6 11 20 21 19 17 16 15 14 12 9 3 2 2 4 8 12 14 14 14 14 14 16 21 26 26 28
5 4 5 2 2 3 5 5 2 3 3 4 5 3 5 5 5 7 13 21 19 18 19 19 17 13 11 7 4 3 4 9 12 13 13 14 14 14 16 21 25 26 31 30
4 4 3 5 2 3 3 4 4 5 3 3 5 2 4 1 20 21 23 21 18 16 14 12 10 9 6 7 3 4 9 12 14 13 14 13 13 17 23 26 28 29 31 32
4 1 2 0 1 3 1 3 3 6 3 3 2 2 6 2 11 21 24 22 18 14 13 12 10 9 7 3 3 7 11 14 15 13 13 16 20 24 26 28 28 30 30 29
5 3 1 3 2 4 4 4 3 4 2 1 3 3 4 8 7 8 8 18 17 17 17 16 13 9 5 2 8 12 14 11 9 10 14 18 20 24 26 25 27 27 27 29
3 4 4 2 3 1 4 2 6 5 3 4 1 5 5 10 8 8 12 21 22 21 18 15 12 6 1 7 10 8 3 4 9 14 17 18 19 20 21 24 28 28 29 28
2 5 3 1 5 3 1 3 4 4 2 1 3 5 3 6 15 22 23 25 22 20 15 9 5 3 5 6 5 2 5 9 13 17 20 19 16 16 22 26 27 26 25 26
2 2 3 6 6 5 1 2 5 6 3 4 4 5 2 6 6 12 20 18 17 15 11 7 2 2 2 1 3 6 11 14 19 21 19 17 21 27 28 25 30 31 26 27
3 3 5 6 4 3 3 3 4 5 3 3 6 4 5 4 7 14 18 19 17 12 7 2 2 3 3 5 7 10 13 16 17 17 20 26 29 29 28 28 30 32 34 30
4 3 2 3 4 2 1 4 6 6 5 6 5 7 5 9 8 14 17 18 13 7 3 3 3 3 4 6 10 13 14 13 18 23 28 29 27 25 26 31 37 35 26 21
4 1 1 1 5 6 3 5 6 5 4 7 3 5 5 15 12 13 18 14 10 5 3 1 3 4 7 10 10 9 13 19 24 28 27 23 22 26 31 36 34 26 20 18
3 4 3 3 4 4 6 9 9 5 4 7 6 8 12 7 13 15 16 12 9 5 4 3 5 6 6 6 9 14 18 24 26 22 20 20 26 29 34 32 25 18 12 10
5 4 2 2 3 2 6 3 4 5 3 3 2 7 16 15 13 13 12 10 8 7 6 6 4 5 5 9 13 18 23 23 18 16 20 24 29 33 31 24 12 9 6 8
3 5 3 3 3 5 4 4 6 7 7 7 7 8 11 10 10 9 13 11 9 9 8 6 4 7 10 13 19 22 21 19 13 20 26 29 33 31 24 15 12 11 10 10
5 6 4 3 4 6 5 3 7 5 5 15 16 15 14 16 3 5 18 12 9 9 6 4 6 9 14 17 20 19 18 16 22 27 28 30 27 23 21 15 13 12 10 7
2 3 5 2 3 8 7 5 7 5 7 20 24 26 23 9 13 6 14 11 10 7 6 6 8 12 17 20 19 18 22 23 25 26 27 24 22 24 17 12 11 10 11 9
7 7 4 3 1 8 11 4 8 6 7 21 23 26 28 22 10 11 10 11 9 8 6 8 12 17 19 19 20 21 23 23 26 26 22 21 21 21 15 13 10 8 9 13
2 7 5 9 6 4 18 7 19 9 12 20 21 24 21 17 14 14 13 11 10 7 7 11 16 18 18 18 19 22 24 26 27 23 20 21 21 20 16 15 14 13 12 13
4 7 3 2 4 14 13 24 17 16 16 13 18 18 17 16 16 13 14 11 6 7 10 15 17 18 19 19 20 22 25 28 26 16 18 20 21 18 16 13 11 11 12 13
5 8 5 5 9 8 12 18 20 16 14 13 15 16 16 15 13 15 11 6 6 10 14 16 17 19 19 20 21 24 27 22 22 18 20 21 18 17 13 10 10 12 14 14
9 7 4 6 12 9 7 9 15 17 16 16 17 16 14 14 15 10 5 5 10 13 15 16 18 20 20 22 24 24 24 18 20 23 21 19 17 14 14 12 11 14 16 11

GFSCGP_850_spd_033.txt.gz
Wind_Speed
1 3 3 3 3 3 4 3 3 2 2 6 4 4 6 3 7 11 11 13 13 13 14 13 13 12 13 15 15 17 21 14 4 3 12 12 6 3 2 4 6 5 7 10
4 3 1 4 3 5 4 7 3 3 3 4 4 6 7 6 2 4 11 12 13 11 9 7 6 5 5 3 7 10 9 14 12 12 9 5 1 2 5 5 5 7 10 14
4 2 4 3 4 7 4 5 2 3 4 6 3 3 2 5 6 4 6 10 12 13 15 15 15 15 17 20 20 18 17 15 14 10 6 3 3 4 7 8 8 9 14 17
4 3 3 4 3 2 4 1 4 4 2 2 3 3 2 1 3 4 9 13 19 24 23 20 18 25 27 24 20 17 15 12 8 4 2 4 7 8 8 8 8 12 15 19
1 2 4 4 1 2 3 3 4 3 4 2 2 2 1 0 4 8 13 16 19 19 17 20 24 23 21 19 15 12 11 11 7 5 5 6 7 7 6 7 10 15 18 18
2 2 3 2 3 4 8 4 5 3 2 1 1 3 3 5 5 11 14 15 16 16 18 22 22 21 19 19 17 16 14 9 6 5 5 6 7 6 6 10 14 17 19 21
4 3 2 3 4 3 4 4 2 1 1 3 1 2 5 4 6 17 20 18 18 17 21 23 24 22 18 15 12 12 10 6 4 6 6 6 5 8 10 13 14 16 17 18
3 0 2 3 1 4 2 3 4 4 3 1 1 4 1 2 5 19 21 20 21 21 21 22 20 17 14 9 11 10 7 5 5 5 4 3 7 9 11 13 16 17 18 20
3 1 2 3 1 1 3 2 2 6 1 1 2 3 5 1 5 15 21 19 22 23 23 22 19 17 12 12 11 9 7 5 2 1 3 7 9 11 14 16 17 17 22 25
5 3 1 0 2 6 1 7 3 2 3 3 2 4 5 4 8 12 18 23 22 23 21 21 19 16 15 15 11 7 3 2 2 4 7 9 11 14 15 15 20 23 23 25
3 3 2 1 1 5 2 2 5 4 1 2 1 4 4 8 11 16 23 24 23 22 21 21 19 17 16 11 7 2 2 2 3 7 9 11 12 13 17 22 21 23 26 29
1 4 3 2 0 1 1 3 4 3 4 1 0 5 2 5 10 13 17 17 19 19 18 18 18 16 12 8 5 2 2 7 8 8 9 10 14 19 23 21 21 24 29 32
5 1 3 2 2 1 3 3 4 5 2 5 4 4 1 4 6 15 16 16 17 19 20 20 17 14 11 7 4 2 12 6 9 9 11 15 20 21 18 18 22 29 33 30
4 3 4 6 3 1 4 4 5 4 3 4 6 4 4 6 7 10 15 19 19 23 22 19 16 13 9 6 5 10 7 8 7 10 16 19 17 15 16 22 28 31 29 25
2 4 2 1 1 2 2 4 8 8 4 6 4 9 6 9 11 13 13 18 23 24 22 18 15 12 8 5 7 8 6 5 9 15 18 16 15 15 21 27 29 27 23 20
2 3 2 3 1 3 3 5 7 8 3 10 4 13 9 4 5 14 20 24 24 24 22 18 14 11 9 7 7 6 5 9 13 16 16 16 15 18 25 27 25 23 20 16
2 5 3 3 3 3 5 9 12 6 6 8 10 10 6 5 10 17 21 26 26 26 21 17 14 10 8 7 6 6 8 12 15 15 14 12 17 23 25 24 23 23 19 16
5 4 2 1 2 1 4 2 3 12 10 13 5 4 8 4 7 11 19 24 26 23 19 16 13 11 10 9 8 8 10 14 15 12 11 17 21 23 23 23 22 21 18 16
3 4 3 3 2 6 5 3 6 6 6 12 14 6 5 5 3 7 17 20 23 21 17 14 13 12 11 9 7 9 13 15 13 12 15 19 21 23 23 22 20 18 15 15
5 5 3 3 3 5 5 2 3 4 4 2 11 8 10 11 3 5 17 21 22 19 16 15 13 13 10 7 9 12 14 13 13 14 17 20 22 23 22 21 20 16 14 15
2 3 3 2 3 7 6 3 3 2 5 2 13 15 17 7 10 4 8 22 20 16 15 14 12 9 6 8 12 14 14 14 15 17 19 22 23 21 22 22 21 17 15 14
5 6 3 3 1 6 6 4 4 3 4 6 14 17 17 14 10 9 11 19 18 16 16 10 8 7 8 11 14 14 14 16 17 19 22 22 21 18 20 24 21 19 16 15
3 4 4 8 4 4 11 8 9 9 6 6 13 15 17 17 15 14 17 19 19 20 9 7 7 8 11 13 13 13 14 17 19 21 22 22 20 19 20 22 20 18 15 15
4 5 2 1 2 10 18 18 23 26 26 20 16 14 17 20 16 18 20 22 16 6 10 7 11 10 11 11 13 14 16 19 21 22 21 20 21 21 21 21 19 17 15 16
3 7 4 4 11 14 11 12 12 15 18 19 19 18 16 17 19 20 24 13 12 13 8 11 9 9 10 12 13 16 19 22 23 22 19 18 19 21 22 18 17 17 18 17
9 5 4 5 8 5 11 13 15 11 12 14 13 11 9 11 21 21 14 16 11 6 10 8 7 9 11 13 16 18 21 22 22 20 17 17 18 20 21 19 20 18 17 16

GFSCGP_850_spd_036.txt.gz
Wind_Speed
7 6 9 14 3 4 3 4 10 8 5 7 4 7 5 8 14 16 16 16 15 15 11 9 13 12 14 18 19 12 11 19 12 4 12 13 11 7 5 4 5 5 5 7
6 6 4 5 4 4 5 8 6 5 4 5 8 6 4 6 11 13 14 14 15 13 10 9 9 11 13 14 13 11 10 11 12 13 13 11 8 7 7 5 8 7 8 11
5 5 5 6 7 7 4 3 7 5 7 2 9 8 8 4 7 9 10 11 12 12 11 11 11 12 15 18 16 18 16 18 18 16 13 9 8 5 6 9 9 9 9 10
3 3 4 7 6 5 6 3 6 10 10 7 8 8 11 8 8 9 11 12 12 13 13 13 15 16 19 22 21 19 20 20 19 17 11 10 4 5 6 6 5 4 10 14
4 6 7 5 3 2 4 4 4 4 6 5 9 7 8 8 10 11 12 14 15 16 17 16 18 21 20 19 18 18 18 15 16 15 8 5 5 5 4 4 4 7 10 16
5 3 1 3 6 1 10 7 6 3 3 7 4 7 9 5 4 11 14 18 20 19 17 18 20 19 17 16 15 16 15 14 12 9 7 7 4 4 3 4 6 10 12 14
6 4 4 4 8 6 6 6 3 3 4 6 2 6 11 3 3 9 19 23 21 18 19 21 20 18 16 15 15 14 12 10 9 8 6 4 4 3 3 5 9 13 16 17
9 6 5 2 3 1 3 4 3 4 3 1 3 5 2 1 1 7 19 22 21 19 20 21 19 16 15 14 13 12 12 9 7 3 3 3 5 3 5 9 12 13 13 15
7 4 5 3 2 3 5 4 3 2 1 3 4 4 8 3 5 11 19 22 22 22 21 20 18 17 15 12 13 12 10 7 3 3 7 8 7 9 10 13 13 10 13 15
4 4 2 4 2 7 4 9 3 3 3 4 4 5 2 6 9 12 18 22 23 22 19 19 18 16 14 13 14 13 9 5 1 5 9 8 10 11 12 13 12 11 14 18
5 3 5 3 7 6 4 4 0 1 2 2 3 1 3 2 5 13 19 23 24 22 20 19 17 15 14 12 11 11 9 3 5 6 8 10 9 12 13 10 10 12 18 21
2 1 4 6 3 1 3 6 9 4 4 1 2 3 3 1 3 9 16 20 22 20 19 18 17 17 15 14 13 13 7 4 7 8 7 5 11 11 8 10 13 17 20 22
7 3 4 5 5 5 7 9 5 4 1 6 3 2 3 4 5 9 12 16 19 20 19 19 19 19 18 15 14 11 3 6 7 7 5 6 7 8 9 12 16 19 20 19
4 3 7 10 2 0 6 11 12 11 4 5 9 10 7 8 8 9 14 17 21 22 21 20 20 19 17 16 14 7 11 11 8 7 6 8 11 14 13 15 19 19 19 17
3 6 4 2 0 3 5 8 13 16 14 8 12 11 11 7 9 11 13 17 19 21 21 21 21 19 17 16 13 11 10 10 10 9 9 10 13 14 13 17 19 18 18 14
2 3 3 3 3 3 7 10 11 15 16 15 19 20 16 11 9 11 15 18 21 22 22 22 21 19 17 16 12 12 11 11 9 9 11 11 13 14 15 19 19 16 14 14
4 6 4 2 2 3 6 16 18 13 13 15 14 16 3 7 11 13 15 18 20 22 23 23 21 18 16 14 13 12 10 9 10 14 13 13 13 16 15 16 15 15 15 14
5 5 2 1 1 3 1 1 3 13 17 15 17 13 9 5 4 6 11 16 18 20 22 21 19 17 15 15 12 11 8 11 14 13 11 11 13 13 14 14 14 15 14 13
1 4 3 2 4 6 12 3 3 4 6 5 11 11 6 4 2 10 11 13 16 18 19 18 16 15 16 11 12 8 11 13 13 9 9 10 12 14 14 14 14 14 14 13
4 3 1 3 3 3 3 3 1 2 5 7 4 4 9 8 4 3 5 11 12 15 16 16 16 16 15 12 8 11 8 10 9 11 11 12 13 14 14 14 15 15 14 14
2 1 4 3 4 6 1 2 3 3 3 7 4 7 11 7 6 3 6 11 13 16 17 18 18 17 12 8 11 10 9 9 11 14 14 14 14 15 14 14 15 16 14 13
5 6 3 3 3 4 5 6 3 4 6 6 5 6 12 7 4 4 8 13 18 20 19 18 17 16 8 10 11 8 8 10 13 14 15 15 14 14 14 14 16 15 14 13
3 3 1 6 1 3 7 6 4 6 11 10 8 7 10 10 8 7 10 14 16 16 17 17 13 9 9 12 10 9 9 13 14 16 17 14 13 13 13 16 16 15 13 13
4 4 3 1 2 7 9 10 11 11 15 14 14 13 11 12 10 10 13 16 17 16 14 11 9 8 9 8 10 11 12 13 15 17 15 12 13 13 16 16 15 13 13 12
3 8 4 4 10 7 2 5 7 13 12 12 10 10 10 9 9 12 15 16 15 16 11 7 7 7 8 9 10 11 13 15 17 15 14 13 12 15 16 15 15 14 13 14
1 3 2 2 7 5 9 12 13 12 12 11 8 6 4 4 11 15 17 18 15 13 6 5 7 9 11 10 11 13 14 15 16 16 15 12 14 15 16 15 15 17 19 18

GFSCGP_850_spd_039.txt.gz
Wind_Speed
13 7 12 15 15 9 4 7 11 14 11 13 12 10 13 16 16 18 18 19 20 20 18 15 14 14 16 18 19 20 21 15 21 17 13 13 12 11 10 7 4 4 3 2
7 9 7 10 3 7 6 6 7 10 11 9 10 12 12 15 19 19 19 20 21 20 16 14 14 15 17 20 19 19 17 11 16 10 9 9 10 8 7 6 7 6 5 3
1 6 5 6 7 6 7 2 8 7 11 14 9 14 15 12 14 14 19 20 20 21 18 16 16 16 17 19 19 19 15 13 13 13 13 12 11 10 8 8 5 7 5 3
20 18 6 8 6 6 10 2 1 4 12 13 17 13 19 18 16 15 17 17 19 18 18 17 16 17 18 20 18 17 18 15 15 16 12 12 8 7 7 8 8 6 8 5
3 9 9 8 4 5 8 3 4 6 12 7 13 8 18 15 15 15 17 19 19 19 18 18 17 16 19 20 19 17 17 18 17 14 12 10 7 5 5 6 8 6 8 9
2 8 3 5 3 4 4 4 6 7 10 8 15 13 5 12 14 17 14 16 18 18 18 18 20 23 22 20 18 18 19 17 15 13 10 8 7 6 6 6 7 8 9 12
12 10 4 5 6 3 8 9 8 5 4 8 4 5 12 7 4 5 14 18 19 20 20 22 24 23 21 20 18 18 17 16 14 12 10 8 7 6 4 7 7 9 11 12
12 8 12 7 9 5 9 11 5 6 7 7 8 7 3 9 2 4 14 18 20 20 20 22 23 21 19 18 17 16 16 15 14 13 11 9 7 4 6 7 7 9 10 11
15 5 7 2 3 5 6 7 5 4 1 5 10 9 9 5 6 7 15 19 21 21 21 23 22 20 19 18 17 17 17 15 15 13 11 6 8 6 7 7 6 7 9 11
4 3 4 5 5 6 8 3 3 4 3 7 4 6 5 7 7 8 14 19 21 21 22 23 22 20 19 18 17 18 18 17 15 12 7 6 8 7 5 5 7 7 9 12
7 9 7 5 10 11 7 8 6 4 3 4 4 2 8 3 6 9 13 18 20 22 23 22 21 20 20 18 18 18 18 18 14 9 4 8 8 7 5 5 7 8 11 14
4 4 7 10 5 5 10 8 9 5 6 4 4 5 4 5 3 7 12 17 20 22 23 22 22 21 21 20 19 20 20 16 11 6 9 6 9 7 7 8 9 10 13 15
6 7 9 7 6 7 8 9 8 8 2 9 4 3 6 7 4 5 9 14 19 23 24 22 22 22 22 21 21 20 18 14 6 5 5 10 9 8 9 10 10 12 14 15
1 11 9 10 9 5 12 12 11 12 8 10 12 13 6 9 7 8 10 13 18 22 22 23 22 22 22 21 21 20 17 10 5 6 11 10 10 10 10 10 11 13 15 15
4 10 12 14 5 7 9 9 10 16 17 15 12 15 12 9 6 10 10 13 16 18 21 23 23 22 22 21 20 19 13 9 9 10 11 9 10 10 10 11 12 14 15 15
5 6 3 6 9 9 12 14 14 15 16 17 19 18 16 12 11 8 13 12 15 18 20 22 22 22 22 21 20 17 14 12 11 10 9 10 9 10 10 11 14 14 15 15
6 4 4 5 3 5 6 15 18 18 17 14 16 16 11 8 7 11 12 10 13 15 19 21 22 21 20 20 19 17 14 12 9 9 9 8 10 10 11 13 13 14 15 16
5 7 2 1 1 1 3 1 4 7 12 14 13 14 13 10 9 7 7 9 11 13 15 17 19 19 18 18 17 16 12 9 10 8 8 9 10 11 13 14 14 14 15 16
4 5 2 3 6 9 12 5 1 1 5 10 8 10 8 5 6 14 9 6 7 10 13 15 16 17 18 18 17 13 10 9 8 7 7 9 11 13 14 15 16 16 16 16
3 1 4 3 3 4 4 4 2 1 4 9 9 9 5 3 4 4 3 3 5 8 11 13 15 17 18 18 16 13 9 7 8 8 10 10 12 13 15 16 16 16 16 16
3 1 6 5 3 6 5 2 2 4 4 10 10 10 7 6 6 6 6 6 7 9 12 13 15 16 16 14 12 8 5 7 8 11 10 11 13 14 14 15 14 15 17 17
6 7 3 3 3 5 6 6 1 6 8 9 11 10 9 10 9 9 6 6 7 8 10 12 12 13 12 7 2 1 6 5 9 9 11 13 14 14 14 15 14 15 18 18
4 4 1 6 1 5 4 4 4 7 10 11 12 12 12 13 15 11 8 5 6 8 8 10 12 10 6 3 1 3 4 11 9 13 15 14 14 14 15 16 16 18 17 16
3 2 2 1 4 0 4 4 3 8 10 13 12 13 13 14 13 11 4 4 6 8 11 10 9 7 5 2 5 4 11 14 14 14 14 14 14 15 15 16 16 18 18 16
4 6 4 5 7 5 5 5 10 12 11 11 11 9 10 10 9 1 5 7 8 9 8 8 8 4 1 4 10 13 14 13 13 13 14 15 14 14 16 17 17 18 18 19
2 2 2 1 5 5 8 10 10 9 10 10 8 6 10 7 6 9 12 11 11 12 11 7 4 4 8 11 14 14 13 13 13 14 13 12 15 15 16 18 21 20 22 22

GFSCGP_850_spd_042.txt.gz
Wind_Speed
13 6 8 6 5 13 11 15 15 11 13 8 8 10 12 18 16 21 20 21 20 21 18 21 18 17 21 25 23 19 19 19 19 17 15 14 17 10 12 12 8 6 3 5
10 5 6 14 17 19 16 1 10 13 9 10 13 11 14 14 17 19 20 23 23 23 25 21 19 19 19 24 22 21 20 15 14 14 12 9 9 9 8 9 9 8 7 7
15 3 13 12 16 12 8 12 7 9 7 11 11 13 15 15 18 21 25 26 28 28 27 20 20 20 21 22 25 20 21 16 15 10 10 10 10 9 11 9 10 13 8 3
4 11 16 17 11 5 2 11 8 16 15 7 9 9 17 13 13 16 23 24 25 26 28 23 21 22 21 22 17 16 16 14 14 16 14 12 14 13 12 11 6 11 9 9
4 14 18 20 7 5 3 9 16 16 6 4 7 6 12 12 18 16 13 16 19 24 24 23 25 24 21 22 21 19 16 19 19 19 15 14 10 14 15 13 14 10 7 12
10 18 21 2 2 2 13 10 15 9 9 7 16 11 14 13 11 19 13 19 19 17 19 21 23 25 18 21 20 23 21 23 20 17 16 15 13 10 12 11 9 6 9 9
8 16 4 5 6 6 8 10 3 7 7 4 9 5 5 19 19 17 20 18 18 19 18 19 19 21 24 24 23 23 22 22 20 19 16 15 13 12 12 13 15 14 13 11
11 9 13 8 7 4 15 7 3 2 5 7 5 5 5 12 11 8 16 15 16 16 17 19 22 25 26 25 23 22 23 21 19 18 16 17 15 14 13 8 12 12 12 15
6 3 13 10 3 10 9 4 4 7 3 2 6 17 7 8 8 8 14 17 18 19 20 22 24 24 24 23 22 23 23 22 23 19 20 19 16 13 10 15 16 14 12 10
6 3 14 16 6 4 5 6 4 2 2 4 8 10 9 6 8 6 11 16 18 19 20 23 26 25 24 23 22 21 22 25 23 23 24 19 11 13 15 13 11 12 12 13
7 11 8 6 8 8 6 7 5 6 4 1 4 3 7 6 8 6 9 17 20 21 23 24 26 25 22 23 23 22 21 24 23 21 20 15 17 17 9 9 11 11 11 12
13 5 4 12 3 5 9 11 9 3 5 2 1 6 4 5 6 6 9 15 20 23 23 25 26 25 23 23 22 23 22 21 20 20 18 14 17 9 9 10 12 11 12 12
4 4 5 9 6 8 8 12 9 8 2 4 3 3 5 4 2 5 5 12 17 20 22 25 26 24 25 23 22 21 23 22 20 20 15 11 10 13 10 11 12 14 13 16
4 5 9 6 11 5 6 11 11 10 3 4 9 14 9 10 10 8 11 7 10 18 20 23 24 24 25 22 21 22 23 20 21 15 12 10 10 13 10 13 14 15 17 17
3 8 12 14 14 7 9 12 8 11 10 10 11 15 12 11 7 7 4 9 10 13 16 19 18 19 20 20 20 22 21 22 18 14 13 11 12 11 14 14 16 16 16 16
5 6 4 8 9 13 11 15 15 15 15 14 14 14 11 11 9 11 9 9 10 9 13 12 13 14 17 19 23 20 20 17 13 15 13 11 10 15 12 14 14 15 14 14
7 3 2 2 6 7 5 10 16 16 15 13 11 10 8 12 8 6 4 8 6 7 8 11 14 16 17 19 20 18 19 16 16 14 10 11 14 11 11 11 12 14 15 17
6 5 3 1 1 1 8 4 5 5 8 9 9 12 14 14 14 9 7 7 7 3 7 7 10 14 14 16 15 17 18 16 14 7 9 9 10 10 8 11 15 16 17 19
4 5 2 3 4 7 12 1 3 2 5 11 10 10 13 12 12 17 3 5 5 6 5 7 8 10 11 12 15 15 13 8 8 6 7 7 8 10 13 14 16 19 19 19
1 5 3 3 2 4 1 5 3 2 2 9 10 10 10 12 3 6 7 3 6 6 6 6 6 8 10 11 11 12 8 8 5 4 7 17 16 13 13 15 18 20 19 19
2 0 4 3 1 5 6 5 1 2 3 5 8 11 11 7 4 5 10 10 6 8 3 3 6 8 8 9 11 11 10 6 2 4 12 11 12 14 16 19 20 19 17 16
6 6 3 2 2 5 7 6 2 5 6 9 10 11 10 9 13 10 8 9 8 4 6 11 12 13 13 10 10 8 7 4 2 8 11 17 16 17 16 18 19 17 17 19
4 4 4 7 3 7 5 6 5 6 6 10 11 11 11 12 12 12 5 4 6 9 10 10 11 12 9 9 5 5 3 7 9 12 18 19 16 15 15 18 19 18 20 25
4 4 2 2 4 7 4 8 12 10 9 9 9 11 8 11 12 10 7 10 10 12 15 13 11 7 4 3 7 1 6 9 12 17 17 14 14 16 18 19 16 18 20 23
3 7 4 4 3 3 14 13 10 9 8 9 9 10 11 8 10 13 16 15 12 11 10 7 7 8 5 4 9 7 9 14 16 14 14 15 17 16 16 15 17 21 25 25
4 1 3 1 8 4 14 10 10 11 11 11 10 14 16 15 15 14 14 11 9 7 6 6 5 4 5 6 9 12 14 16 14 15 16 16 17 18 20 21 23 22 22 23

GFSCGP_850_spd_045.txt.gz
Wind_Speed
7 4 5 8 6 4 5 6 8 9 8 6 9 9 11 20 23 23 30 31 28 28 29 26 25 28 33 29 24 24 25 27 25 23 18 18 18 19 18 17 15 11 7 5
6 7 8 7 8 7 6 11 10 13 5 4 7 8 11 12 17 28 29 31 31 29 32 28 29 31 33 31 28 27 26 25 22 20 16 14 15 15 10 12 11 10 8 5
6 11 17 3 9 13 3 6 2 2 5 5 3 5 6 7 13 26 32 31 31 31 35 34 30 24 30 34 34 24 22 16 19 16 16 15 13 14 15 13 11 9 8 8
6 7 10 8 13 6 4 5 5 3 5 2 2 3 1 5 10 12 24 33 34 33 33 35 33 27 23 31 26 22 16 14 16 16 15 17 19 17 12 5 7 10 10 6
6 1 2 5 6 6 6 7 10 8 7 10 4 5 6 2 5 6 5 29 37 40 40 39 34 31 25 25 24 16 13 16 21 21 16 16 13 8 9 11 11 10 8 8
6 8 1 2 8 11 3 2 4 4 1 1 5 5 4 6 8 5 5 19 20 37 40 34 30 32 31 27 21 14 17 21 20 21 20 15 14 17 18 20 19 14 7 11
4 5 10 12 6 3 7 3 3 5 6 5 8 3 8 11 12 8 18 36 17 20 34 34 35 35 32 27 23 22 24 23 25 26 22 20 18 21 19 17 16 17 15 12
5 1 5 3 3 4 3 3 4 4 2 6 7 6 5 14 13 26 28 30 22 17 26 31 33 30 26 23 24 24 27 30 31 28 24 24 21 20 18 19 20 18 14 18
5 3 8 10 11 3 2 4 4 6 2 2 4 4 5 7 4 7 17 20 21 21 20 23 23 22 23 24 22 24 30 29 29 28 27 26 25 24 21 21 19 20 19 21
2 5 2 3 9 8 7 7 1 3 3 3 4 3 3 6 3 8 9 19 20 19 19 20 24 26 28 27 29 28 22 24 25 25 27 28 27 24 22 18 18 17 23 19
6 4 2 11 4 8 1 3 2 3 5 4 1 4 1 7 8 9 14 26 25 24 23 24 27 29 30 29 29 26 25 24 26 28 29 27 25 22 17 20 18 12 18 22
8 4 4 9 18 15 6 6 6 5 4 3 5 5 2 7 9 15 17 29 30 29 28 28 30 31 30 28 24 22 27 26 30 30 28 23 18 14 17 15 12 14 20 19
3 2 4 1 9 8 4 6 4 3 4 4 5 5 2 5 5 10 12 19 29 30 30 31 32 34 32 30 29 28 29 26 30 29 25 19 14 15 13 14 15 15 18 20
5 0 5 6 6 3 3 4 5 4 4 4 5 5 10 7 8 10 13 8 23 31 31 32 36 38 38 35 32 28 31 28 25 24 20 15 10 11 16 15 13 18 20 21
4 3 1 4 5 5 2 1 4 6 6 6 9 8 9 5 5 5 17 11 6 8 24 29 34 36 34 31 30 26 28 30 28 22 15 7 12 13 15 11 18 22 22 21
2 2 3 1 5 7 4 7 6 7 6 3 2 4 5 5 11 13 13 11 11 11 8 9 15 28 29 28 25 23 29 30 23 16 8 14 13 14 14 16 16 17 19 21
6 4 3 2 4 6 6 7 6 6 4 3 2 4 8 10 11 13 14 17 11 10 11 5 8 12 18 22 23 26 26 21 16 15 18 13 16 15 7 14 14 17 19 21
6 6 3 3 3 2 9 2 5 7 7 8 8 7 10 12 25 23 19 18 19 16 11 8 3 5 8 12 20 19 18 17 19 21 15 8 6 1 7 8 14 16 18 21
4 5 2 4 4 4 7 1 2 4 4 6 8 8 14 12 20 21 18 15 15 12 9 6 2 4 10 16 18 20 22 20 16 11 7 3 3 4 9 12 16 22 23 22
7 5 5 2 4 6 6 3 5 3 1 7 13 9 13 15 5 3 11 15 8 8 4 7 13 16 18 19 20 21 19 17 14 8 7 3 4 6 12 14 21 22 23 25
3 3 5 3 2 7 5 6 2 6 5 9 13 13 12 5 4 3 6 9 8 8 13 18 18 19 20 18 17 19 19 15 10 7 0 11 8 8 16 23 24 21 19 20
6 6 3 3 2 5 9 5 6 6 14 15 14 13 10 9 9 9 12 13 12 13 14 12 14 18 17 15 14 15 12 9 3 13 19 10 11 19 22 18 16 19 23 22
2 6 6 7 6 6 20 25 22 20 18 14 13 8 5 7 12 11 19 18 15 13 13 12 10 11 8 5 2 4 9 17 22 14 8 14 20 17 14 15 19 22 23 22
2 4 4 5 1 11 22 23 18 15 15 12 10 6 7 6 8 17 18 18 17 14 12 8 5 6 9 12 12 8 6 8 11 11 16 18 16 15 17 20 20 18 19 23
5 5 6 4 13 22 19 18 17 15 14 11 8 9 12 10 16 16 15 13 11 9 10 9 9 7 4 3 5 7 7 10 15 17 16 15 17 18 19 19 20 21 23 25
1 4 4 4 9 17 13 19 15 14 16 11 7 10 12 11 13 11 14 14 11 10 9 8 10 9 8 7 8 12 15 16 17 18 19 20 20 21 22 23 25 21 19 21

GFSCGP_850_spd_048.txt.gz
Wind_Speed
2 4 3 7 7 7 9 1 4 6 6 5 11 6 6 23 22 23 31 27 31 39 42 41 41 40 38 32 29 30 32 35 31 29 26 25 24 23 21 18 13 11 11 11
4 3 5 7 4 3 3 2 9 9 8 9 6 9 6 17 22 30 30 31 39 35 38 44 45 43 39 32 29 27 28 29 29 27 26 25 22 22 20 17 16 15 14 12
5 6 4 1 5 7 4 3 5 6 4 4 5 3 4 5 12 24 31 41 41 44 46 45 47 43 39 37 31 26 24 25 26 26 26 25 22 20 21 18 18 17 15 11
4 2 2 5 2 2 7 7 7 1 4 1 3 3 3 7 8 12 25 29 38 41 45 45 46 44 41 38 34 30 27 26 24 28 29 26 24 23 18 16 16 16 14 10
9 3 3 4 6 4 9 4 6 1 3 3 1 2 7 4 7 9 22 32 42 45 48 47 48 45 43 40 37 32 29 25 22 29 27 22 22 18 15 18 18 16 14 13
5 4 4 4 1 3 8 2 7 7 4 1 5 5 6 5 11 12 20 28 29 35 43 43 44 42 42 37 34 29 26 20 21 27 23 18 18 19 20 21 20 17 18 16
2 3 2 1 8 8 2 4 3 3 3 6 2 3 8 6 7 8 15 22 26 37 40 39 41 38 33 33 32 30 22 21 22 26 22 19 19 21 21 20 22 22 21 21
4 1 1 2 3 4 4 4 5 4 3 4 5 4 6 7 5 5 15 17 18 15 36 41 42 37 35 34 33 28 23 22 25 23 23 21 22 23 22 23 26 26 25 19
4 3 3 4 4 3 1 2 5 5 2 3 4 4 6 5 4 7 5 12 13 18 25 37 40 39 35 32 31 28 24 25 25 25 25 27 26 26 24 24 26 26 21 19
7 2 1 4 3 2 6 4 2 3 2 3 3 3 4 3 3 1 3 8 13 22 31 36 37 37 34 28 23 22 24 26 26 30 31 31 28 24 23 24 24 20 19 14
5 5 4 4 7 8 3 3 2 4 4 4 1 5 6 7 8 10 10 16 21 24 26 28 28 30 29 26 26 26 24 24 24 32 30 27 26 25 23 21 18 15 15 17
7 5 4 8 3 6 6 5 4 5 4 1 4 5 4 9 9 14 19 22 25 25 25 24 25 27 28 29 29 29 28 25 28 32 31 32 30 26 21 17 16 19 20 18
7 1 2 6 6 4 3 6 6 4 4 6 5 5 2 3 5 16 21 26 30 31 33 32 32 34 35 36 36 35 33 28 29 31 34 34 28 22 18 19 15 21 19 8
13 5 7 7 7 3 3 6 5 6 3 4 6 6 6 9 8 12 19 21 31 34 35 35 37 39 39 40 38 35 29 27 32 36 34 29 24 20 16 16 15 13 6 14
5 6 5 5 4 3 1 1 2 3 4 5 7 7 8 4 5 5 15 3 5 28 31 35 37 38 40 39 38 35 32 31 34 33 28 22 18 18 18 16 15 10 9 11
2 3 3 3 2 3 3 2 3 4 3 4 4 2 6 8 15 18 12 16 14 9 2 19 30 31 33 37 36 35 35 32 30 27 23 19 17 21 17 14 13 9 8 12
6 6 3 4 3 3 5 6 6 3 2 5 5 5 4 8 11 11 17 17 15 14 10 7 5 11 25 27 28 31 31 28 25 22 16 17 22 20 16 11 7 5 12 19
7 5 3 3 2 1 7 4 4 11 5 7 8 5 8 15 20 18 17 19 17 14 12 10 8 10 16 19 22 23 25 27 24 20 22 21 17 13 10 5 7 21 14 13
5 5 3 4 4 4 5 6 6 6 0 0 6 5 10 19 22 18 12 13 11 8 7 6 7 11 18 20 22 26 29 25 24 23 21 18 15 6 10 23 19 9 16 21
7 6 4 2 4 7 7 3 9 6 1 5 11 5 6 7 3 2 11 7 9 10 8 6 10 8 16 21 26 28 27 26 24 19 14 6 10 24 17 9 12 18 21 22
3 3 5 2 3 7 7 6 6 6 6 11 16 13 9 4 5 15 12 11 11 11 13 13 15 13 19 23 25 25 23 20 15 9 3 18 19 7 7 13 18 21 20 18
7 6 3 3 3 6 8 5 7 7 15 19 16 14 18 15 19 18 16 17 17 17 18 17 18 21 19 17 13 8 6 8 10 18 15 12 8 8 15 20 19 16 18 20
2 7 6 8 5 3 3 12 23 25 24 16 16 15 13 18 20 18 18 17 17 16 16 14 14 15 13 9 4 2 4 8 9 8 7 7 11 16 18 18 18 19 21 23
1 6 4 5 4 5 19 22 23 21 20 17 14 12 9 16 17 18 18 18 18 17 16 13 10 9 7 5 6 6 5 6 7 9 12 16 17 17 17 18 20 22 23 25
6 8 6 5 2 15 13 18 22 21 18 15 14 12 12 14 18 19 20 19 17 14 11 8 8 9 8 5 6 7 9 11 13 15 16 17 18 20 21 22 24 25 26 26
4 6 5 5 19 9 10 18 20 18 16 15 15 18 16 16 22 20 20 17 13 14 14 13 11 8 7 8 9 9 9 11 15 18 19 21 23 24 26 29 31 29 29 28

GFSCGP_850_spd_054.txt.gz
Wind_Speed
3 3 4 8 6 4 3 2 4 5 2 4 7 7 9 19 17 17 22 27 29 28 20 25 28 26 25 28 27 28 28 26 25 28 29 28 27 27 25 22 16 17 17 16
4 5 8 5 4 4 3 2 3 6 3 3 2 7 7 15 21 27 29 31 34 31 28 29 29 31 30 29 26 28 29 29 27 28 29 29 26 27 25 23 19 19 18 17
6 4 5 3 2 1 1 1 3 3 6 1 1 3 4 6 9 19 25 36 32 33 31 31 33 34 32 33 31 28 28 29 29 30 30 30 30 32 29 25 23 22 19 17
5 4 3 3 4 4 2 3 1 4 2 3 3 4 4 4 12 10 23 29 34 35 34 33 35 37 38 37 34 32 32 31 31 33 33 35 34 33 30 27 23 21 20 20
6 4 5 4 6 6 7 4 2 2 2 3 2 2 6 1 5 11 18 29 37 39 39 39 40 39 39 39 36 34 34 34 34 35 36 36 35 34 30 25 23 21 22 22
5 1 3 4 0 3 4 4 5 4 3 2 4 4 5 4 7 6 14 28 39 43 43 43 41 41 41 42 41 38 36 35 36 36 36 37 37 35 29 23 23 24 25 24
2 2 3 2 1 4 4 5 3 4 3 5 1 1 8 6 5 7 11 29 40 45 43 42 41 42 42 42 43 39 41 41 39 39 39 39 37 34 25 23 24 24 26 26
6 4 5 3 4 6 2 6 5 2 2 4 3 4 5 3 10 8 11 20 34 41 45 44 44 43 44 43 42 40 41 41 42 42 39 39 39 31 24 23 21 21 24 24
5 4 1 1 0 3 3 2 4 6 2 2 3 6 10 3 2 5 5 6 19 30 39 46 44 46 46 44 44 42 41 41 42 42 37 36 36 26 26 22 22 23 26 28
7 2 0 1 1 1 2 5 3 3 1 3 4 4 5 7 7 6 5 3 6 15 25 34 40 43 45 44 45 44 43 42 40 33 34 25 23 24 25 26 28 29 29 31
5 4 2 1 4 6 2 0 5 5 4 3 1 5 7 6 5 5 5 5 2 9 13 22 27 32 34 36 38 40 38 39 37 32 26 24 25 27 30 31 31 30 30 32
6 6 5 8 1 3 4 7 6 5 4 1 3 6 5 8 6 5 10 6 6 3 9 14 17 20 22 26 28 28 31 33 30 26 24 24 27 31 33 36 31 30 30 30
7 1 1 7 4 1 4 5 4 5 3 6 4 6 3 6 8 9 11 12 10 9 9 11 14 16 16 18 21 27 29 27 23 22 25 27 30 33 33 30 28 26 26 24
10 4 7 8 8 5 4 6 6 6 4 4 6 6 8 7 6 9 11 13 16 16 15 16 17 19 21 23 25 24 23 21 22 24 26 29 31 29 28 26 23 22 23 18
7 8 6 5 4 5 6 5 8 7 6 7 7 8 8 6 6 10 13 10 9 13 17 20 22 20 20 21 21 20 19 22 22 23 26 27 25 22 26 21 21 22 17 11
3 5 4 3 2 2 3 3 8 6 3 5 4 6 6 1 0 5 6 6 11 12 7 4 10 12 15 18 19 20 19 20 21 20 20 19 21 23 20 21 19 16 10 12
9 7 4 5 2 5 4 8 6 5 5 6 7 10 6 3 5 4 9 12 14 14 14 12 10 6 2 4 8 10 12 12 14 14 15 17 19 19 18 16 13 14 17 12
5 6 3 3 2 1 6 1 5 8 5 4 4 2 4 10 11 10 9 11 13 13 12 11 10 9 7 3 2 5 7 10 13 13 15 16 17 17 15 15 8 7 16 17
3 5 3 5 4 4 3 5 8 8 9 6 6 6 13 18 12 9 8 10 12 11 11 10 8 6 3 1 2 5 8 10 11 13 15 15 16 15 9 5 9 19 26 18
5 6 4 3 5 8 8 5 9 5 6 8 11 8 12 12 3 3 7 8 10 9 7 6 5 4 3 4 3 5 10 12 15 18 18 15 8 2 11 21 20 14 12 14
3 3 5 3 3 7 6 3 11 6 8 17 26 27 22 5 4 14 11 9 8 7 7 8 8 8 9 8 6 11 16 17 15 11 4 7 13 15 14 10 10 14 18 21
7 7 3 3 3 6 11 7 9 8 3 25 25 26 21 10 15 17 13 11 10 11 12 12 14 17 17 15 11 14 11 6 3 7 6 6 6 7 10 13 16 18 20 22
3 6 6 9 7 3 16 6 16 7 9 24 26 23 23 22 21 18 16 15 15 15 18 18 18 21 19 14 10 9 7 3 1 1 2 4 7 9 11 13 16 19 21 24
3 3 4 4 5 5 10 15 11 15 21 26 26 26 24 24 23 21 20 21 20 20 19 18 17 16 15 10 7 5 3 1 3 4 6 9 11 14 16 19 22 25 27 30
4 7 6 3 3 2 10 15 17 19 22 24 24 24 23 23 24 24 25 23 22 21 19 15 12 11 10 6 4 2 1 3 6 8 11 13 16 20 23 25 27 30 31 31
7 7 5 6 11 8 10 22 22 26 26 25 26 24 21 22 25 26 25 23 21 19 16 13 11 9 8 4 2 2 4 6 9 12 16 19 23 25 28 31 33 31 32 32

GFSCGP_850_spd_057.txt.gz
Wind_Speed
1 2 6 10 4 2 3 1 2 1 2 4 6 9 8 17 16 16 18 17 19 22 19 20 23 22 24 27 27 25 24 22 23 26 27 27 29 27 26 24 21 21 16 15
1 5 7 3 3 3 4 1 2 3 2 4 1 8 4 18 23 26 24 23 24 22 22 23 25 29 28 28 30 29 27 26 25 24 26 28 27 29 27 25 25 23 18 17
5 3 5 4 4 5 4 4 4 1 1 1 3 4 2 7 15 19 22 24 23 25 24 26 30 32 32 31 31 30 29 29 29 28 26 29 30 29 30 29 27 22 19 20
5 2 5 5 5 6 3 5 5 2 2 2 3 3 4 4 11 13 23 24 27 27 30 29 31 34 35 33 31 29 28 28 30 30 29 30 31 30 29 29 26 22 22 22
5 5 4 4 5 6 5 2 2 2 3 1 2 3 3 0 7 16 23 28 30 30 31 34 36 34 33 33 33 30 29 28 29 30 32 31 33 33 31 30 26 23 24 24
4 2 3 4 1 4 4 3 5 3 2 1 1 3 3 5 5 3 13 25 30 34 34 34 32 32 33 33 33 32 32 31 31 30 32 32 33 33 33 31 27 25 26 28
1 2 2 3 3 2 2 3 0 1 1 3 3 2 7 3 7 8 9 15 27 39 38 36 35 35 34 35 35 35 35 35 35 34 35 32 31 33 35 34 28 27 30 31
6 3 6 4 4 5 4 3 4 3 3 1 0 4 3 3 10 9 10 14 13 26 39 41 40 38 37 36 36 37 38 39 39 37 37 29 18 34 36 35 31 28 29 29
6 5 1 1 2 2 4 2 1 6 2 0 2 5 8 3 4 4 7 8 7 11 23 34 41 41 40 39 36 36 36 38 41 37 38 34 29 36 37 36 31 26 26 29
7 3 1 1 2 4 1 8 3 1 3 3 2 3 4 4 3 4 3 5 7 4 9 18 26 33 38 38 36 35 35 35 37 37 37 35 32 34 33 33 29 29 28 30
5 3 1 1 5 8 3 2 3 4 1 2 2 3 6 5 2 4 3 2 3 3 3 6 11 17 23 30 32 31 32 33 34 35 33 32 32 28 29 28 29 27 25 21
6 4 4 6 1 1 2 6 5 3 3 0 1 5 3 6 5 8 10 6 2 2 2 3 6 10 13 15 17 19 22 23 25 27 28 26 24 24 24 26 28 31 32 29
8 2 2 1 1 2 3 4 4 5 3 7 4 4 3 4 4 5 10 9 6 5 6 8 9 10 11 12 13 16 17 17 15 16 19 20 19 21 25 30 31 29 30 22
15 4 6 10 7 4 4 6 7 6 3 5 7 8 9 9 7 9 9 12 13 11 8 9 11 13 14 14 15 14 12 12 13 16 19 19 20 23 23 21 15 15 19 21
5 7 6 4 4 5 5 5 12 11 10 8 11 10 10 7 4 5 7 6 7 6 3 8 9 9 8 8 9 11 13 14 16 15 15 14 12 12 14 15 14 14 17 19
2 5 5 3 2 7 5 8 7 7 4 9 8 7 11 4 4 1 3 6 10 12 12 8 5 4 4 3 3 3 3 4 4 5 5 5 6 8 8 11 14 16 18 15
4 5 4 5 2 5 4 7 9 5 5 6 8 11 6 6 6 6 6 10 12 14 16 17 15 12 9 7 5 4 3 2 2 3 2 2 5 9 13 14 15 16 11 9
5 5 2 3 1 4 3 1 3 9 6 8 4 4 4 5 8 9 9 11 13 15 15 16 15 14 12 9 7 6 6 6 6 6 7 9 11 11 13 13 10 7 5 10
3 5 3 5 4 3 2 5 7 7 11 7 11 5 6 16 12 4 10 12 14 15 15 14 12 10 10 9 9 9 10 10 10 11 11 13 14 14 10 8 4 12 17 21
5 4 3 3 5 8 8 4 8 4 8 9 13 11 18 17 7 5 14 13 14 13 13 13 13 12 11 13 12 11 15 12 14 16 15 14 10 4 7 12 12 11 8 10
3 2 7 3 4 5 6 6 12 6 9 10 20 18 25 10 3 21 19 17 15 15 15 14 15 15 15 16 13 18 19 16 13 10 6 2 6 7 6 5 6 9 13 16
6 7 4 3 1 7 11 8 9 8 7 11 22 25 24 15 19 24 21 19 17 17 18 16 18 20 20 18 15 18 15 13 8 3 4 3 2 3 5 8 11 13 16 20
4 6 5 9 6 2 28 9 22 9 8 11 25 29 33 25 26 25 24 21 20 19 21 21 23 24 22 18 13 13 11 6 3 1 0 1 3 5 8 11 14 17 20 24
4 4 3 2 4 5 13 19 13 17 13 11 23 33 33 27 28 27 25 24 24 23 23 23 22 22 20 15 11 9 8 4 2 1 1 3 6 9 12 15 18 20 21 23
3 8 6 4 4 5 17 24 24 18 14 16 22 30 31 29 29 28 28 27 27 26 24 22 20 19 17 13 9 8 6 3 0 2 5 8 11 14 16 18 19 20 20 21
7 6 5 6 13 11 11 22 24 20 20 23 28 28 27 28 31 30 30 29 28 27 24 21 18 16 15 11 9 6 4 2 3 7 9 12 15 17 19 20 21 21 21 22

GFSCGP_850_spd_060.txt.gz
Wind_Speed
10 9 10 5 5 6 4 6 5 3 3 6 9 10 6 11 13 16 18 17 18 18 18 18 20 21 24 26 25 25 24 21 18 19 21 20 21 22 22 22 25 23 21 22
7 12 6 3 5 7 8 9 6 3 4 5 6 11 2 9 15 16 17 18 18 18 18 19 21 22 24 27 28 26 24 23 23 20 21 21 23 22 21 24 26 24 25 24
13 3 2 9 9 9 8 9 3 3 2 8 10 11 6 5 11 13 18 18 20 21 22 22 24 26 25 27 27 27 25 23 23 21 19 19 18 19 23 22 27 27 27 24
11 10 7 9 10 10 10 7 6 6 7 7 3 3 5 7 9 14 18 21 21 22 23 24 25 27 28 27 26 27 26 25 25 25 21 22 21 20 19 21 28 28 27 24
11 10 11 13 13 8 6 4 6 8 8 5 7 6 6 5 8 12 18 23 23 23 25 27 27 27 26 26 26 26 26 26 25 25 26 24 23 18 18 22 27 27 27 26
9 4 5 5 3 8 4 7 4 4 3 7 3 6 4 5 4 2 9 20 23 25 25 26 26 25 27 27 27 29 28 27 26 27 29 30 24 22 23 25 26 27 28 25
14 13 5 6 8 7 10 9 6 5 5 4 4 5 8 2 3 6 8 8 13 23 26 25 26 30 29 29 29 30 30 30 29 31 30 31 30 29 24 27 29 31 31 30
15 14 14 11 11 8 15 11 4 5 4 4 4 5 3 2 6 8 7 8 9 14 23 28 28 28 29 30 30 32 33 31 29 31 31 31 30 25 22 20 31 33 33 32
16 13 5 8 4 7 7 8 1 2 1 2 4 4 11 2 4 3 3 2 2 5 14 22 27 26 26 26 29 30 30 28 27 30 28 31 32 26 21 27 33 31 28 31
8 11 5 7 6 4 6 10 5 4 4 5 4 4 4 2 4 3 3 5 6 2 4 10 17 25 25 24 22 22 24 24 23 24 27 31 32 28 33 33 30 27 28 31
11 7 6 6 11 12 6 6 2 1 3 3 3 4 0 2 1 1 1 3 3 3 1 4 8 12 17 19 19 18 19 19 19 20 21 26 26 26 27 29 27 24 27 32
16 8 8 13 4 3 6 9 11 5 5 3 3 6 8 8 6 6 6 5 5 3 1 1 3 6 8 10 11 12 13 14 15 15 17 19 18 19 22 21 18 21 30 30
14 10 9 9 6 5 8 10 11 6 2 11 6 4 6 5 6 8 8 4 4 5 3 2 4 5 6 7 8 9 10 10 10 13 15 14 15 16 18 21 24 26 28 26
23 13 19 13 12 9 12 14 15 13 7 10 11 15 12 13 12 10 9 6 5 6 7 6 7 7 8 8 10 9 8 11 11 10 10 12 13 13 13 14 16 16 10 14
13 18 16 15 13 13 16 15 15 17 17 15 12 12 10 12 11 7 4 3 3 2 2 6 8 8 8 8 7 9 8 8 9 7 8 7 7 5 7 8 9 12 12 11
6 11 12 16 14 13 16 16 17 17 17 12 16 14 12 13 6 7 4 4 4 5 6 6 8 10 10 10 9 7 6 7 7 7 5 5 4 5 5 6 9 9 11 13
6 8 7 12 6 6 7 15 16 15 14 15 15 14 11 9 10 9 6 6 8 10 11 12 12 12 12 12 11 11 11 11 10 9 10 8 8 8 9 10 10 11 11 8
6 12 6 5 4 7 8 2 14 18 16 16 15 13 10 10 7 8 7 10 11 12 13 13 14 16 15 15 15 15 14 14 13 12 12 11 11 11 11 10 8 3 2 7
12 8 4 5 9 10 5 5 9 11 16 18 19 17 10 8 11 7 10 11 12 12 13 13 14 15 16 16 16 15 16 15 14 15 15 13 10 6 5 3 1 5 8 10
7 8 6 4 6 9 8 14 15 6 13 11 13 13 12 16 9 7 18 16 15 14 13 14 15 16 16 17 17 18 19 18 16 15 13 12 9 5 1 4 4 2 2 3
5 3 11 8 6 5 4 8 14 9 15 2 12 12 18 14 4 21 23 19 17 17 17 16 16 17 17 18 18 20 19 17 16 14 12 7 3 1 1 1 1 3 5 9
8 9 5 6 6 10 11 11 10 13 4 8 13 15 21 14 16 22 23 21 20 20 19 18 19 19 18 18 18 18 16 15 13 9 5 4 3 2 1 1 4 6 6 10
5 5 2 8 5 2 27 16 23 7 9 9 13 15 20 21 23 25 24 23 21 20 20 20 21 21 18 16 16 17 15 12 10 8 5 4 2 0 2 4 7 7 9 11
6 3 4 4 10 11 10 19 9 10 10 7 9 16 23 26 26 26 24 24 23 22 22 22 22 21 19 17 16 13 12 9 7 6 5 3 1 3 6 7 7 7 10 11
10 10 12 16 14 6 14 18 21 15 14 14 12 18 24 27 28 28 26 25 24 23 22 21 21 21 20 18 16 12 10 9 7 5 3 1 3 4 5 7 8 8 11 13
9 11 6 8 12 12 15 10 19 21 20 16 17 21 23 28 31 29 27 26 26 26 24 22 21 22 21 17 15 13 11 9 6 3 2 3 4 6 5 5 5 13 11 12

GFSCGP_850_spd_063.txt.gz
Wind_Speed
21 13 15 17 11 12 11 11 9 8 5 7 8 19 9 13 9 11 13 15 14 16 17 19 20 22 23 23 24 23 23 22 20 17 17 17 18 18 19 18 19 20 19 21
13 16 17 5 4 7 11 13 12 3 3 6 6 18 5 8 10 13 15 15 17 18 19 20 23 24 25 26 25 23 22 22 20 18 18 18 18 19 19 18 18 20 20 23
17 13 10 6 10 9 11 14 2 2 17 13 14 17 9 8 13 14 13 14 16 20 22 23 25 26 26 27 27 25 24 23 21 19 18 18 18 19 20 20 19 23 23 24
19 12 8 12 13 10 13 11 8 10 10 8 15 3 18 13 13 13 17 19 22 22 22 24 26 28 28 28 28 27 26 25 24 23 21 22 21 22 21 21 21 28 23 27
17 17 13 14 13 11 14 5 7 11 12 15 14 7 10 12 10 14 17 23 23 24 26 26 28 28 28 28 29 29 28 27 25 24 24 22 22 20 18 19 21 25 21 24
20 15 16 19 15 7 6 7 10 11 11 11 7 12 6 10 11 7 17 21 24 23 25 26 26 26 27 27 28 28 28 29 28 26 26 26 24 23 21 22 24 24 21 25
20 14 14 8 10 9 11 13 9 8 3 8 10 6 7 13 4 1 2 9 20 23 24 25 27 29 29 31 31 29 29 29 29 29 28 28 28 25 25 23 23 18 22 25
18 20 21 14 16 12 16 16 7 8 6 2 6 6 4 7 3 1 4 6 8 13 23 29 29 30 30 31 31 31 30 29 30 31 29 27 27 27 26 28 23 26 24 28
18 21 22 15 14 14 12 15 9 7 2 3 6 7 6 6 4 3 1 4 5 6 14 23 29 29 29 29 31 32 29 28 28 29 28 29 29 29 26 30 29 27 28 31
10 15 11 14 8 11 8 10 8 7 4 8 6 7 5 7 4 6 5 5 5 4 3 10 20 28 27 27 27 27 27 27 26 27 29 30 32 31 29 27 28 30 29 25
12 14 13 12 16 15 12 10 9 4 7 5 5 4 4 3 6 4 1 2 3 4 4 5 9 18 25 24 23 25 25 24 23 24 27 28 31 28 28 28 30 29 26 23
21 12 12 17 16 20 13 18 17 9 11 7 8 11 4 6 8 6 8 4 3 2 2 4 6 9 14 20 23 22 22 21 21 21 20 25 23 20 21 18 20 22 23 23
19 11 13 16 10 9 12 13 13 14 11 11 8 7 2 3 3 7 9 8 7 8 5 5 7 8 10 13 16 17 16 16 16 16 17 23 20 16 18 20 20 21 19 21
24 15 17 15 16 15 18 17 18 16 9 12 14 16 10 9 15 11 13 8 9 9 9 9 8 10 11 12 13 14 15 18 21 24 23 19 17 15 15 15 15 14 14 12
19 21 19 20 17 13 16 20 20 20 19 18 15 17 13 6 9 9 6 4 7 7 7 9 10 10 11 13 16 20 17 16 15 13 14 14 13 12 9 8 8 8 9 10
19 16 21 19 19 18 13 16 18 19 18 17 19 19 13 9 13 8 7 5 8 6 5 6 10 12 12 12 10 12 12 12 13 12 11 11 8 8 8 7 5 6 9 8
16 14 16 17 19 19 18 18 18 18 17 15 17 16 16 12 10 9 11 9 9 8 7 9 12 13 12 11 12 12 10 11 11 10 11 11 12 12 10 10 9 7 6 7
13 16 11 7 2 12 11 16 19 21 20 16 17 18 16 15 11 7 9 12 11 12 12 13 14 15 15 15 15 16 16 16 16 16 16 16 15 13 12 9 9 7 6 5
10 11 10 8 11 13 15 8 12 15 16 16 17 17 15 3 5 7 9 11 14 15 15 17 17 18 18 18 18 18 18 17 17 17 16 16 14 12 9 8 7 5 3 3
10 11 9 6 14 17 12 16 13 14 13 17 17 8 9 10 6 9 21 19 17 16 15 17 17 18 18 18 18 19 19 18 17 17 16 14 12 11 9 3 1 3 4 3
6 6 13 11 8 8 10 13 14 11 11 11 5 7 11 9 9 8 22 21 20 18 18 18 17 17 17 18 19 20 19 18 17 16 15 12 7 6 7 7 6 5 4 2
10 9 5 8 9 11 7 10 13 15 19 9 11 11 10 11 13 20 22 23 23 22 20 19 19 18 18 18 18 19 18 17 16 14 12 10 9 8 7 6 4 2 1 2
8 10 9 9 5 7 20 16 25 14 10 9 11 10 14 20 20 22 24 25 24 23 22 20 21 21 19 18 17 18 17 16 15 13 11 9 9 7 6 5 2 2 2 3
13 7 4 6 11 12 13 15 17 9 12 10 9 11 16 22 22 25 26 26 25 24 23 23 23 22 21 19 18 17 16 15 14 13 11 10 9 6 4 2 1 2 5 5
11 8 10 17 19 22 13 12 17 17 16 14 11 13 18 21 25 27 28 28 27 26 24 23 23 22 20 19 18 16 15 14 13 12 10 8 6 5 2 3 5 5 9 8
15 13 9 9 11 12 18 20 13 20 23 17 15 16 19 23 25 28 28 28 28 28 27 25 23 23 21 20 18 16 14 13 13 11 9 7 5 4 3 2 7 9 10 10

GFSCGP_850_spd_066.txt.gz
Wind_Speed
21 13 16 19 20 22 16 13 15 4 4 4 9 9 16 25 29 23 21 22 24 18 27 20 30 23 25 29 31 31 28 27 26 30 25 22 22 23 22 19 20 22 20 22
16 19 19 21 21 7 12 14 15 2 2 3 11 7 21 17 14 15 19 21 22 22 29 27 28 27 27 33 28 31 32 30 28 22 24 23 23 20 24 25 20 24 24 22
20 20 20 21 11 9 13 14 3 18 4 13 13 13 9 2 13 10 18 20 25 24 28 30 32 32 35 36 37 36 30 30 29 27 21 22 23 21 23 26 25 27 30 29
24 23 13 16 10 13 14 10 11 11 10 7 6 9 11 11 11 13 14 18 21 24 26 29 31 33 34 34 34 33 33 31 30 29 28 27 26 27 26 26 26 28 28 25
21 20 19 14 15 15 13 6 11 10 12 14 10 5 11 13 15 14 13 17 21 21 25 32 33 33 34 34 35 32 32 31 30 26 27 26 26 24 24 24 25 24 25 22
21 20 19 18 15 13 10 9 9 12 11 11 14 6 9 5 10 11 20 24 23 28 29 28 33 33 34 33 34 34 32 32 30 30 29 27 28 27 24 24 23 27 27 23
18 22 17 16 16 18 9 10 7 6 8 8 6 9 7 12 12 14 8 27 30 27 29 31 33 37 36 37 37 36 36 35 32 31 30 28 27 26 26 24 24 31 27 24
16 16 24 13 17 14 14 14 8 6 3 4 12 6 5 10 11 6 2 3 15 27 28 28 32 37 38 39 39 39 38 37 35 35 32 28 26 29 25 28 27 35 32 29
19 21 20 16 15 18 14 13 16 9 9 5 5 14 6 9 5 8 5 2 10 12 17 32 30 30 36 38 40 40 38 35 35 36 37 36 30 35 29 34 36 38 35 31
16 13 22 21 19 18 16 9 10 6 4 6 6 7 3 8 6 8 8 8 7 2 4 13 29 35 33 35 37 38 36 34 34 34 36 38 37 37 35 33 35 33 31 31
25 15 15 17 16 18 11 11 11 13 7 1 4 2 2 7 6 7 6 9 6 6 7 3 7 16 34 32 34 37 37 35 32 33 36 34 36 37 34 30 31 28 28 27
25 9 10 16 17 16 17 17 15 6 8 5 2 5 4 11 5 9 9 8 6 5 7 8 7 9 11 29 29 32 33 31 31 31 30 34 33 36 25 26 28 22 26 23
20 16 10 15 16 16 19 14 14 13 11 11 8 4 2 2 3 1 4 11 14 9 8 11 8 8 9 13 18 22 28 25 27 26 25 28 31 21 17 18 18 19 19 20
22 17 15 11 15 14 14 16 19 18 7 7 9 11 16 3 9 11 16 19 12 15 11 8 13 11 10 11 12 12 18 20 24 23 29 32 27 16 16 17 18 18 19 17
4 16 17 17 19 20 21 18 19 19 13 15 12 15 15 12 7 7 4 10 5 5 7 9 9 16 15 18 22 25 25 26 26 22 18 16 16 16 16 17 15 15 13 12
6 12 17 16 19 19 14 19 22 20 19 16 17 17 14 14 11 11 8 10 6 8 5 6 8 18 19 22 22 20 21 22 20 18 17 17 16 13 13 12 11 9 9 11
9 7 12 15 17 18 17 17 14 14 15 15 15 11 11 12 10 8 8 9 9 11 7 5 8 21 19 19 18 18 17 16 16 16 16 13 11 11 11 11 11 9 10 10
4 11 9 6 3 22 11 13 15 15 16 15 14 12 11 13 17 7 5 10 12 12 10 10 11 14 14 12 11 13 17 17 16 16 16 16 16 15 15 13 13 13 12 10
8 8 4 6 12 12 18 12 13 14 16 16 17 17 13 21 6 5 8 7 14 17 15 15 17 18 18 15 14 17 18 19 19 18 18 18 17 17 17 13 12 12 10 9
13 9 10 4 12 14 9 12 8 9 11 14 13 10 10 10 3 1 14 14 18 18 18 19 20 21 23 23 24 24 23 21 20 19 20 18 16 15 13 12 10 8 8 9
7 6 13 8 6 6 7 12 16 15 7 14 15 15 11 3 4 12 17 19 21 22 22 22 22 23 23 23 24 23 23 22 22 21 19 18 15 11 8 10 10 10 12 12
13 7 7 5 7 13 4 8 19 9 15 12 17 9 5 12 11 16 23 25 25 25 25 24 24 24 23 23 24 24 24 23 22 19 18 15 14 14 13 13 13 12 8 9
10 13 8 7 7 6 17 11 12 11 9 11 12 7 6 15 18 22 25 26 27 27 27 26 27 27 25 24 25 25 23 22 22 19 19 17 15 14 13 11 12 10 9 9
11 10 4 10 12 6 8 15 12 11 11 9 10 5 8 18 21 24 25 26 27 27 27 26 27 27 26 24 22 22 24 22 21 20 17 16 15 14 14 11 11 13 13 11
8 12 12 13 20 11 20 14 14 10 11 14 12 10 11 18 24 25 26 27 27 27 27 27 27 26 24 24 24 22 22 20 19 18 17 17 16 11 14 13 10 10 9 8
8 7 4 3 6 5 4 6 2 9 11 19 16 12 11 15 19 23 25 27 27 27 26 25 25 26 24 23 22 20 19 19 20 18 17 15 16 15 10 8 7 6 7 9

GFSCGP_850_spd_069.txt.gz
Wind_Speed
14 4 13 13 13 17 16 18 8 5 5 7 6 6 9 14 19 17 27 23 31 30 20 19 18 19 22 23 28 35 36 37 35 32 34 36 31 24 24 24 24 22 22 25
8 18 15 16 16 17 18 12 9 2 7 2 5 5 10 10 7 21 30 28 33 29 28 25 26 27 28 35 40 34 34 34 34 40 31 26 28 27 26 26 26 24 22 21
15 12 18 19 18 18 12 5 7 6 5 7 4 7 5 10 12 24 30 37 37 43 39 35 30 34 34 35 35 33 32 31 33 33 29 31 27 25 27 30 27 24 24 25
14 19 19 19 20 14 5 10 10 4 4 3 5 5 3 6 13 15 30 34 36 44 42 41 36 36 36 36 33 32 32 31 33 32 33 33 32 30 29 30 29 27 28 28
14 16 22 21 19 11 9 5 1 5 5 4 4 2 5 9 10 8 11 34 38 44 44 44 39 37 35 35 35 34 35 37 37 34 30 30 30 30 27 28 28 31 32 32
19 22 15 20 8 7 8 2 3 3 1 4 4 4 7 5 9 13 10 32 39 40 45 44 40 37 35 36 35 34 39 36 33 33 38 35 32 32 34 31 33 34 35 34
18 19 21 13 9 8 6 2 3 4 2 5 5 6 9 10 8 9 13 30 40 39 43 43 46 47 43 44 45 41 40 41 39 37 36 41 38 36 37 34 35 36 37 37
13 14 18 8 13 7 6 8 5 5 3 3 6 5 6 8 10 7 14 37 39 40 43 48 49 47 47 48 48 47 44 46 47 45 44 43 42 39 40 37 38 39 41 37
11 11 2 12 6 9 5 6 7 6 2 4 4 7 6 4 5 7 8 26 32 37 42 45 49 49 48 47 48 47 48 48 49 49 48 43 43 42 44 39 40 39 37 33
4 6 13 21 9 9 7 4 3 3 4 3 8 7 2 4 8 7 6 6 10 26 37 45 46 49 48 47 45 46 45 45 46 48 48 47 44 42 38 40 37 40 36 26
16 7 11 9 13 14 5 9 4 6 6 5 2 4 4 7 6 7 8 14 12 8 4 6 20 43 46 48 48 47 47 45 43 42 44 46 45 42 38 37 33 24 31 36
17 3 12 17 18 18 14 10 8 5 5 4 5 5 6 10 5 11 14 17 17 14 9 5 4 5 36 47 47 48 46 47 45 41 39 41 42 43 31 36 30 32 31 26
8 5 7 11 15 16 17 7 10 8 4 6 6 5 6 9 3 12 13 19 22 19 19 14 8 6 8 28 38 41 40 34 24 20 30 33 31 25 28 33 39 29 26 22
14 9 16 14 10 6 4 7 9 8 4 4 6 6 7 6 5 4 11 14 20 21 19 19 14 10 11 12 10 23 24 24 25 28 37 31 26 21 17 24 19 17 17 17
9 15 17 16 17 18 19 14 15 16 11 7 5 8 8 8 10 11 8 21 19 24 19 22 22 22 19 17 15 13 19 22 21 23 28 27 21 16 15 14 16 15 15 16
8 6 10 16 14 18 14 15 14 12 8 5 16 13 12 17 12 13 19 21 17 19 15 10 9 28 26 22 20 16 13 18 19 23 23 20 18 14 11 12 13 14 15 15
6 5 6 12 14 15 6 18 13 14 11 10 9 9 6 7 6 8 20 25 21 21 17 12 9 21 26 27 24 21 17 12 14 14 14 14 13 13 11 12 14 14 12 13
6 6 2 4 1 15 6 10 13 15 6 5 3 3 5 7 9 6 18 29 27 25 20 17 19 25 27 25 24 22 19 18 16 12 12 12 13 13 14 14 15 15 13 13
1 5 3 9 10 7 8 4 5 6 8 5 5 6 8 18 10 7 15 25 26 22 21 20 21 24 24 21 18 17 16 17 17 17 17 16 17 19 19 17 16 17 17 17
0 5 4 2 5 14 2 6 14 4 5 5 2 5 6 6 4 4 13 16 22 22 24 25 22 21 20 19 17 17 22 23 22 22 22 20 20 18 17 16 16 16 14 11
2 1 5 2 2 6 6 8 14 5 6 9 11 9 7 6 9 16 20 19 17 22 24 24 23 21 20 19 19 22 24 23 22 21 21 21 19 17 15 15 13 14 17 17
5 5 3 3 5 13 6 4 7 6 17 22 14 8 2 10 17 26 24 22 23 24 24 23 23 23 23 24 23 25 25 24 24 24 22 21 18 16 17 17 18 16 17 18
5 6 5 7 4 6 12 11 18 4 5 6 4 7 1 22 27 29 26 25 25 26 26 25 25 27 26 25 25 27 27 26 26 24 22 21 19 19 18 19 21 21 19 18
5 4 4 1 5 2 13 15 25 14 8 8 5 4 3 17 18 24 24 24 26 26 27 26 27 27 25 24 27 28 27 26 25 23 24 25 24 22 21 21 21 21 19 17
5 9 7 3 3 7 6 13 26 21 15 21 15 13 9 7 19 21 22 23 25 26 26 24 26 26 25 24 25 26 25 24 24 25 24 24 24 24 23 21 18 16 15 14
4 6 5 5 12 13 11 16 13 15 28 19 15 14 13 9 20 21 20 23 27 25 24 23 24 24 23 23 23 22 22 23 25 24 23 22 20 19 16 15 14 12 11 10

GFSCGP_850_spd_072.txt.gz
Wind_Speed
6 3 14 13 10 6 5 6 8 13 21 5 7 6 15 13 18 15 20 19 20 22 18 15 14 16 19 22 27 25 27 29 37 44 38 39 40 35 29 26 25 25 23 21
4 18 16 7 7 10 11 12 15 15 14 3 4 5 8 12 16 24 28 25 21 23 23 21 19 19 22 25 29 29 30 33 41 46 44 42 36 32 28 25 27 27 26 25
15 6 17 14 13 13 15 13 13 16 5 5 2 3 3 11 10 18 27 29 23 27 30 28 27 26 24 28 33 31 36 39 44 45 40 38 31 27 30 29 31 31 29 26
9 22 12 10 14 13 12 12 14 6 2 4 3 5 5 5 10 11 25 30 33 30 34 31 31 30 30 34 36 37 41 41 45 42 43 40 40 38 36 34 30 32 31 28
9 10 15 16 19 13 12 13 9 6 4 1 4 2 6 4 8 12 16 30 35 38 42 39 36 34 31 36 39 40 40 39 40 41 41 38 39 36 33 31 31 33 31 30
13 17 10 15 14 14 16 7 1 5 2 3 3 5 5 5 6 5 19 31 38 42 46 42 36 34 34 37 37 39 40 40 40 41 41 38 38 39 37 34 33 34 34 35
9 18 12 8 7 10 14 5 1 3 3 6 1 3 8 9 8 10 20 31 39 46 47 47 43 41 41 44 43 41 42 41 39 40 39 39 40 40 37 34 35 34 35 37
11 6 13 9 18 7 8 8 5 5 4 4 4 6 6 7 19 20 29 41 43 43 46 49 48 46 44 44 44 44 44 42 40 39 40 40 41 42 41 37 35 38 38 38
10 9 6 11 13 12 5 5 8 7 2 2 4 7 9 3 2 6 13 29 37 42 45 50 49 49 47 45 45 44 43 42 41 41 41 43 45 46 44 43 45 39 39 38
3 2 13 9 2 5 8 7 4 1 5 3 5 5 5 1 3 3 6 18 31 39 45 50 51 50 49 48 46 44 44 45 44 44 45 46 46 46 47 48 44 45 44 41
10 2 5 2 7 6 1 3 3 5 6 4 3 5 6 7 7 8 8 21 31 37 38 41 46 50 50 51 51 50 49 47 48 47 46 47 47 48 49 51 49 42 42 37
12 5 6 9 5 5 7 11 9 5 5 5 3 5 3 9 7 7 12 22 23 22 22 31 43 44 46 50 51 54 52 51 46 41 36 32 40 43 50 49 48 40 29 31
8 6 3 4 9 7 8 9 9 6 5 8 8 5 4 7 4 7 17 23 23 20 19 20 20 20 35 43 47 47 49 45 35 31 33 30 45 52 47 39 33 33 29 29
19 6 17 14 7 2 5 9 14 10 5 6 6 5 13 7 8 6 21 21 26 27 25 22 19 15 15 21 37 41 42 41 40 37 29 32 37 31 34 37 39 42 33 36
7 6 8 9 11 9 14 15 8 12 8 9 11 11 14 9 8 13 20 22 26 27 30 26 21 20 19 19 22 30 38 38 38 38 36 31 31 31 32 30 31 29 25 27
4 2 5 9 13 10 17 18 11 10 7 9 8 11 9 17 19 16 19 19 21 33 28 29 25 25 23 21 21 26 32 36 38 40 35 31 28 23 21 18 19 22 24 24
3 1 5 6 13 6 10 17 16 10 8 6 7 10 8 10 10 16 23 28 27 29 26 28 28 30 27 24 23 23 25 26 27 25 25 23 24 21 22 19 21 21 22 24
9 4 2 4 5 8 7 13 17 18 19 11 6 5 9 12 25 26 21 29 28 33 30 25 22 28 31 28 23 21 21 21 20 19 19 21 21 22 23 22 22 22 22 20
6 6 4 5 7 4 7 10 15 12 9 6 8 9 7 6 7 4 13 26 31 33 29 26 22 22 28 27 24 22 20 18 19 22 24 24 23 23 22 20 21 21 21 20
6 6 7 2 6 8 4 19 15 4 6 6 6 7 5 8 4 5 16 29 34 28 24 22 21 21 24 25 23 21 19 19 20 21 21 22 22 21 21 22 23 22 21 23
2 4 4 2 2 5 7 7 16 10 7 11 9 10 6 5 9 11 21 24 25 24 22 22 21 21 23 23 21 19 18 19 19 18 20 21 20 20 19 20 22 22 22 21
10 6 3 1 2 4 6 7 6 4 9 9 11 14 10 8 6 14 27 29 28 26 25 24 22 21 20 20 19 18 19 19 20 20 19 18 18 18 18 19 20 19 19 19
3 6 6 8 6 4 2 4 4 9 16 14 14 12 11 14 17 25 29 29 29 29 26 23 20 19 17 17 16 16 18 19 18 16 16 14 15 15 16 18 19 19 17 17
3 3 3 2 4 5 2 7 12 9 13 20 22 16 9 10 13 25 24 26 26 26 24 21 19 18 18 18 16 15 16 16 14 15 15 16 17 19 18 16 15 14 16 17
6 4 5 3 1 1 4 7 13 20 12 20 19 16 14 8 12 20 24 27 27 23 24 21 20 21 22 21 19 18 17 17 17 17 18 17 17 17 18 18 17 17 16 12
4 5 5 5 11 9 14 19 18 19 16 13 13 9 7 5 9 15 20 23 23 26 25 24 25 27 25 23 23 23 21 20 20 20 20 20 20 19 17 17 16 13 11 11

GFSCGP_850_spd_075.txt.gz
Wind_Speed
7 4 16 15 9 3 4 3 5 8 15 3 10 6 10 8 14 15 19 20 21 22 18 15 12 13 16 18 20 23 24 22 33 41 42 38 37 34 35 34 30 29 26 22
3 12 14 6 8 9 6 5 10 11 18 4 9 9 6 7 11 20 22 24 24 23 21 19 16 18 19 20 24 29 25 26 32 39 43 38 38 33 34 33 30 27 24 24
14 7 10 15 7 8 8 10 8 11 7 5 5 5 4 5 8 18 22 22 26 28 24 23 20 19 19 24 25 28 24 25 30 40 41 38 36 34 32 30 28 27 24 21
8 11 7 6 10 11 11 11 13 9 3 5 3 5 4 6 10 7 17 22 26 29 26 24 21 19 20 23 25 26 25 26 31 43 43 40 42 36 36 30 26 24 24 24
8 9 18 17 14 9 12 7 9 9 6 3 1 1 7 2 6 11 17 27 32 33 31 28 26 21 21 23 26 27 27 30 33 42 44 42 41 38 37 34 30 27 29 31
8 5 9 11 19 13 6 4 4 1 3 3 5 5 5 6 9 9 12 29 32 33 34 28 27 25 25 25 27 29 32 34 36 46 47 46 44 41 39 37 36 35 33 34
4 11 3 4 7 7 5 3 3 2 1 5 3 3 8 8 8 9 10 24 34 33 34 32 32 33 31 32 33 34 35 39 40 47 49 47 48 43 43 41 37 37 37 37
12 5 15 8 16 6 8 9 5 5 4 4 0 5 6 7 8 20 27 27 34 34 36 36 35 37 36 35 37 39 40 43 44 47 47 45 48 47 45 43 41 39 38 38
6 7 5 9 7 17 5 5 10 6 3 2 4 7 8 8 8 6 15 19 25 34 38 40 38 38 39 39 41 44 43 42 44 46 47 48 47 46 45 43 40 38 38 39
3 3 8 4 9 11 10 8 4 1 5 4 3 5 6 8 8 6 6 15 30 34 37 40 40 41 42 42 41 42 44 44 44 45 46 46 45 44 43 42 40 40 40 43
9 2 6 6 6 8 4 4 2 4 4 6 1 6 7 10 9 8 8 22 30 33 37 40 42 42 42 43 43 44 45 45 46 47 45 44 42 42 42 42 44 43 44 47
9 6 10 10 3 3 5 6 6 5 3 1 5 7 4 8 6 3 9 20 27 28 31 36 41 43 42 42 43 45 46 48 48 44 40 34 20 32 36 46 45 39 44 41
6 6 1 5 5 5 5 5 4 4 3 8 6 6 2 5 4 9 9 16 25 28 28 31 37 42 43 43 44 45 46 48 47 45 43 42 43 42 43 46 45 39 39 35
9 5 15 17 3 5 4 1 1 6 6 5 7 9 6 11 6 8 14 18 19 25 30 33 35 32 33 35 37 42 45 45 46 47 45 45 42 45 45 44 41 41 30 36
4 9 5 12 13 5 3 3 1 5 13 13 11 16 12 10 10 9 19 20 23 26 26 30 32 29 26 25 26 29 35 38 40 40 41 42 41 44 41 38 36 38 43 41
7 5 3 8 10 12 16 10 7 5 9 5 4 9 7 16 18 9 19 17 21 31 29 30 32 28 27 24 23 26 29 32 34 35 37 38 36 36 34 32 31 33 38 42
4 5 3 4 6 4 8 9 17 6 6 6 5 7 6 8 10 13 24 21 23 29 34 35 32 31 30 26 25 26 27 30 33 34 35 36 40 32 27 23 21 20 27 27
6 3 0 2 4 5 4 10 18 14 15 14 7 8 8 12 28 30 24 24 23 26 31 32 39 37 32 29 25 24 23 25 28 30 34 36 33 23 18 18 19 20 20 21
10 3 1 3 4 4 1 4 5 7 14 10 11 12 7 19 10 11 18 19 23 23 32 31 39 36 34 30 25 22 21 22 22 21 20 19 18 19 20 23 22 22 22 23
7 5 5 3 4 5 5 13 10 1 5 5 5 6 2 4 2 6 16 16 21 25 30 32 31 29 27 26 23 22 20 20 18 15 15 15 17 21 22 21 20 20 19 20
4 2 6 4 4 7 8 5 11 4 6 12 14 13 11 2 14 13 13 18 20 26 30 25 22 21 20 21 22 21 19 18 16 18 18 17 18 18 18 19 19 20 23 22
4 5 3 3 3 6 5 0 5 4 7 6 7 9 18 26 28 22 16 20 19 23 28 23 20 19 18 19 19 18 17 16 16 15 15 15 15 15 16 17 19 20 20 21
3 6 4 6 5 5 6 2 7 6 2 1 7 14 13 12 14 20 19 21 22 25 23 22 19 18 17 18 16 15 15 14 13 14 14 14 15 15 14 16 21 21 20 18
4 2 2 3 5 9 13 8 9 6 7 11 10 11 17 18 15 12 15 17 25 23 21 19 17 16 17 16 14 10 10 11 15 17 17 15 14 15 16 18 17 16 16 16
5 1 3 4 7 7 11 17 14 12 15 12 7 5 10 14 14 11 9 12 15 15 16 17 17 18 17 15 13 12 11 13 14 14 15 13 12 14 16 16 15 16 16 13
3 6 2 7 14 9 14 22 24 20 13 9 8 5 3 6 8 12 7 9 13 14 15 16 18 18 18 17 16 15 15 14 12 15 17 16 18 18 18 19 19 17 13 13

GFSCGP_850_spd_078.txt.gz
Wind_Speed
9 4 9 17 9 5 4 4 4 5 4 4 8 7 16 4 10 13 17 21 23 23 19 16 16 13 14 14 15 16 21 26 32 30 34 34 41 35 34 38 42 31 30 28
2 11 19 8 10 8 6 4 11 12 11 8 8 12 11 4 7 15 20 20 24 24 22 20 18 17 17 17 18 17 18 24 32 31 34 30 35 34 37 40 35 29 28 27
15 4 11 11 7 10 13 13 10 10 7 5 5 7 7 3 7 8 15 17 22 27 26 23 20 19 17 20 21 20 20 22 27 32 39 36 33 30 37 36 35 30 28 26
9 13 5 12 12 12 7 11 10 7 2 4 2 5 7 6 7 5 13 19 23 26 28 23 22 20 19 19 22 23 26 23 26 36 40 40 39 35 36 35 33 36 28 27
8 6 16 7 8 9 11 9 10 6 6 1 5 2 7 2 6 9 9 23 25 26 29 28 25 21 17 18 24 24 26 25 27 33 39 42 39 38 39 36 34 38 30 30
6 3 8 9 9 13 1 4 4 1 2 4 9 6 5 5 7 6 6 20 23 27 29 27 25 23 21 19 22 24 26 26 28 32 37 43 42 42 41 41 37 35 34 32
3 5 2 3 4 8 6 4 2 1 1 6 6 4 10 7 9 8 10 20 21 25 28 30 31 30 27 23 23 25 26 29 29 33 37 43 44 44 44 44 42 39 36 34
12 7 11 6 8 7 11 10 5 6 5 4 2 6 6 8 8 13 17 21 17 19 27 31 34 32 31 29 28 29 29 30 31 35 38 44 44 44 45 43 41 41 40 38
6 6 6 8 8 12 6 13 8 5 2 2 4 6 8 8 7 7 13 15 21 21 26 29 32 33 33 32 32 33 33 33 34 33 36 41 44 44 44 44 43 42 40 38
4 3 6 4 6 13 8 7 4 1 5 4 4 4 6 8 12 9 8 9 18 20 23 28 30 32 33 34 33 32 33 33 34 35 35 40 43 42 42 43 43 41 40 41
3 1 5 4 6 9 5 14 3 4 5 6 3 6 7 8 8 9 9 13 18 18 22 25 28 28 30 32 35 35 36 37 38 38 38 39 40 40 39 42 43 42 44 43
4 5 5 10 5 4 9 9 10 5 4 2 3 8 5 6 7 3 12 13 15 16 18 21 24 27 29 31 33 37 38 41 42 42 42 38 33 31 37 46 46 48 46 40
9 4 3 6 12 3 5 4 5 4 4 6 6 4 4 3 2 7 9 12 12 15 16 17 20 22 26 29 32 33 36 40 44 46 44 42 43 33 32 42 45 51 49 46
10 5 8 11 5 4 5 6 5 5 4 5 5 4 5 7 8 7 11 13 13 17 18 18 20 21 23 24 26 30 31 34 38 43 46 46 44 43 46 45 39 36 38 39
2 6 9 14 11 16 5 5 7 9 6 9 4 8 10 9 9 11 20 12 8 18 19 23 22 22 22 22 24 24 27 29 31 33 39 41 41 44 45 44 44 42 39 39
3 6 10 10 9 11 12 11 10 7 5 4 2 8 6 15 19 11 16 15 14 18 24 26 28 30 29 22 20 22 24 26 26 29 31 31 36 37 36 38 37 37 36 37
5 1 5 3 5 6 7 13 7 4 6 5 4 4 7 7 9 11 25 23 19 21 27 32 26 29 32 29 27 26 27 25 24 25 28 29 30 33 35 35 32 29 27 28
8 4 1 4 1 3 5 7 13 15 13 9 6 6 14 17 23 23 24 23 26 24 25 25 30 35 35 34 30 28 26 23 23 24 26 29 28 29 30 29 25 25 23 21
15 7 3 2 4 5 4 2 5 6 8 7 9 9 14 20 15 17 21 23 27 33 30 24 28 33 37 36 31 25 21 19 20 21 22 24 25 22 23 22 17 17 20 21
11 10 3 3 3 3 6 6 0 5 5 2 3 2 6 7 0 6 14 10 21 21 23 23 26 27 29 32 27 21 18 16 16 17 16 15 14 12 14 16 18 20 22 21
4 3 10 1 3 5 10 7 4 4 6 3 3 6 3 5 9 23 22 22 25 22 18 19 20 21 24 26 22 18 15 14 13 12 11 11 12 14 15 18 19 19 18 17
5 5 4 3 2 5 3 3 4 5 3 3 7 12 14 24 27 19 19 21 20 16 16 17 18 21 22 21 18 16 14 13 12 12 11 11 11 13 15 14 14 14 14 16
3 5 2 6 5 4 4 8 3 7 7 6 6 7 10 8 23 26 23 17 15 11 12 17 21 21 19 18 16 15 14 13 13 11 10 11 12 11 10 10 10 12 13 16
5 0 2 2 3 4 15 21 17 11 15 15 13 14 13 14 13 17 18 14 7 3 9 12 16 19 20 17 15 11 10 10 9 11 12 12 10 9 9 9 10 12 13 13
5 3 4 5 5 16 18 21 22 21 20 17 12 13 15 15 10 6 12 9 5 6 7 8 13 19 19 16 13 10 8 9 15 15 13 10 7 7 10 12 12 10 10 10
2 5 3 4 6 3 16 31 24 26 24 15 8 5 4 7 6 10 13 10 7 11 12 9 13 11 15 13 13 15 14 14 14 17 18 16 15 17 17 18 19 18 14 12

GFSCGP_850_spd_081.txt.gz
Wind_Speed
8 9 14 27 15 4 7 7 9 6 4 2 9 11 17 11 8 12 16 19 21 22 15 16 16 16 14 14 16 17 21 21 23 26 31 30 39 49 37 40 38 32 30 27
4 15 19 5 10 13 10 7 18 11 8 7 9 15 16 12 8 10 19 20 22 19 20 19 19 18 15 18 17 19 19 22 25 27 30 34 34 44 38 39 32 28 27 25
14 5 14 12 9 12 16 18 16 14 6 9 7 8 7 3 5 6 12 19 20 24 24 23 23 22 18 20 21 21 20 24 27 30 31 35 37 40 40 44 42 38 27 26
12 14 7 16 17 16 17 12 15 14 7 6 2 6 7 12 11 7 12 19 23 25 24 23 24 25 24 20 24 23 23 21 25 32 32 30 43 36 46 47 46 49 35 30
6 6 17 11 12 15 14 6 12 16 12 7 12 6 3 3 7 11 9 20 24 27 27 28 28 25 22 21 24 25 25 24 25 31 33 38 37 42 41 44 48 50 36 32
4 2 7 10 13 16 3 8 1 1 4 7 14 6 7 6 8 6 7 8 17 26 28 27 24 23 23 21 24 27 29 28 27 29 33 40 40 41 43 47 49 43 39 35
10 14 3 3 6 7 7 5 2 3 5 8 8 9 14 6 8 10 13 15 8 20 29 29 29 28 27 25 25 28 30 34 31 29 33 39 43 43 42 47 44 44 43 40
10 7 16 9 9 8 15 11 5 7 5 6 6 7 8 10 10 10 12 15 7 15 25 33 32 31 30 28 26 29 31 33 33 32 36 39 43 43 43 40 42 40 42 41
4 5 4 7 9 16 7 11 15 4 2 3 4 4 7 9 7 6 10 10 11 17 22 32 32 33 33 31 29 28 29 30 32 32 33 35 40 45 45 45 41 43 40 38
3 4 6 4 8 12 9 11 6 8 7 11 4 3 7 2 5 7 9 13 7 14 20 26 31 33 35 33 29 26 27 29 28 30 32 34 36 41 44 43 45 44 43 41
4 1 3 3 5 13 9 10 4 6 7 8 4 5 8 12 7 7 9 11 4 13 17 23 29 31 34 34 33 30 28 29 29 29 30 32 35 38 41 42 44 46 44 44
8 3 6 11 4 2 12 18 18 7 5 5 6 11 2 7 5 5 10 10 3 7 13 18 23 28 32 34 36 36 33 32 33 32 32 31 28 30 33 36 36 40 44 45
7 3 3 3 10 6 7 7 14 17 5 14 8 4 2 4 6 5 8 12 11 4 9 15 19 23 28 32 35 37 38 37 34 35 34 33 36 36 33 24 36 40 40 42
8 4 6 5 8 11 6 8 10 16 10 15 17 9 4 4 5 8 14 16 15 9 11 14 17 17 21 25 29 32 35 37 38 38 39 37 36 39 37 32 40 42 42 44
4 8 10 16 19 20 21 15 14 16 17 12 8 15 10 7 8 7 13 16 16 14 13 17 19 20 19 21 24 26 27 31 35 38 40 42 41 37 38 42 45 43 37 35
5 2 3 10 15 19 21 21 19 15 11 8 5 8 8 11 12 10 20 15 19 22 18 18 20 22 22 23 23 23 24 24 27 30 31 32 39 44 44 43 43 43 40 38
4 2 3 6 10 18 12 21 18 17 14 10 13 10 8 7 7 9 13 19 21 26 24 18 21 22 23 22 25 25 25 24 24 24 25 26 28 33 37 41 44 42 39 34
7 4 3 6 7 4 5 3 10 17 14 12 8 9 14 10 10 17 23 27 34 32 24 24 18 26 25 26 28 27 26 25 24 24 25 25 26 28 28 29 30 29 27 27
16 7 4 2 2 5 12 3 2 5 8 8 14 16 15 16 6 14 20 19 23 26 24 24 25 28 33 36 28 27 27 25 25 26 24 22 22 24 24 22 22 24 23 23
15 14 5 2 3 3 9 3 5 1 4 0 1 8 6 5 2 2 23 31 25 22 21 19 23 30 32 34 29 27 25 23 23 22 20 18 16 15 16 18 19 19 18 19
8 8 12 8 5 6 8 4 7 2 3 1 6 1 3 1 2 10 22 28 22 19 19 13 14 21 26 27 27 27 24 22 18 16 15 15 14 13 13 15 15 14 16 16
5 8 5 6 5 5 5 5 3 3 6 3 1 1 9 17 21 21 19 27 23 15 13 8 7 10 15 19 24 26 23 21 20 20 17 16 14 13 12 10 12 13 13 14
3 4 3 6 5 2 7 9 11 10 12 7 1 5 8 10 16 15 14 21 21 14 7 5 6 11 14 14 15 23 24 23 22 20 18 15 12 9 9 10 11 11 12 13
2 2 2 2 2 7 21 17 14 15 19 25 21 12 9 7 7 4 9 17 14 6 3 4 12 17 17 16 16 16 21 20 19 18 15 13 13 13 13 12 10 9 11 13
3 2 2 3 4 10 10 25 25 32 28 20 20 15 7 4 6 3 3 7 6 8 11 12 17 19 18 18 19 19 17 17 20 21 20 19 17 15 14 13 13 13 14 12
1 2 2 3 6 3 11 24 22 28 27 19 13 2 4 9 13 11 12 10 9 14 15 18 19 19 21 21 20 19 15 14 18 21 20 16 15 17 18 19 19 16 12 11

GFSCGP_850_spd_084.txt.gz
Wind_Speed
25 15 18 22 23 20 15 15 18 17 2 8 12 15 17 19 12 15 12 16 18 17 16 17 17 16 14 14 16 17 16 15 19 21 30 34 45 47 42 39 37 38 37 41
11 20 21 20 18 17 20 19 20 18 5 10 17 18 18 16 18 16 14 16 18 17 19 20 19 18 16 15 18 17 18 19 21 25 26 35 40 48 44 45 40 36 36 38
16 6 19 19 18 18 19 21 20 17 11 14 18 21 23 17 15 11 13 15 17 20 22 23 23 20 18 17 20 22 19 21 25 25 29 27 39 43 41 43 38 44 33 34
13 19 10 21 24 19 20 19 19 18 16 13 2 10 10 9 14 12 13 14 17 20 21 23 23 22 21 20 20 23 23 23 26 26 31 32 43 50 45 45 47 43 36 34
8 8 19 18 20 19 18 14 14 14 14 15 16 10 11 9 16 16 16 16 17 19 23 24 25 22 21 20 22 25 24 24 27 30 30 33 39 50 45 43 46 44 35 30
13 2 6 19 17 15 6 11 10 7 8 10 17 12 12 11 13 10 6 11 14 18 23 23 21 22 22 22 23 26 27 27 28 31 33 33 41 43 44 46 47 51 43 31
19 21 11 7 7 13 16 10 5 8 7 9 4 11 15 4 6 7 9 9 10 15 22 25 26 26 25 26 25 27 29 29 29 30 33 33 34 44 48 49 52 56 42 33
9 8 25 16 22 12 18 17 7 9 9 7 6 7 12 8 13 15 10 7 7 13 22 28 29 27 27 27 27 29 30 31 29 30 33 33 34 34 41 44 50 45 42 41
3 6 4 11 22 23 15 19 16 15 13 8 9 7 12 12 9 8 11 13 12 14 21 27 29 29 27 28 29 29 31 32 31 33 33 32 34 36 34 38 43 47 39 37
2 5 6 8 12 19 20 7 10 11 7 11 9 11 7 5 9 8 5 8 10 14 22 25 30 30 28 28 28 28 29 30 29 30 31 32 33 35 34 35 39 44 40 37
4 4 4 5 9 15 12 14 12 10 14 11 11 7 6 14 11 4 10 8 4 10 20 23 27 27 27 26 28 30 30 29 30 30 29 30 32 35 38 39 39 41 40 38
4 3 8 13 3 1 9 18 19 12 13 10 14 14 5 3 1 3 8 6 5 4 14 18 22 26 29 30 29 31 31 31 31 30 30 31 31 33 39 45 47 48 49 46
5 1 5 8 10 14 11 11 14 18 17 20 12 3 11 16 12 11 7 8 9 2 9 14 19 25 29 31 31 30 32 32 31 31 32 32 32 35 39 42 44 45 45 45
4 5 6 8 7 9 8 14 15 17 15 17 22 20 15 10 10 8 8 8 9 7 5 12 17 22 25 28 31 31 29 30 30 31 32 34 35 36 37 35 33 35 33 32
6 11 12 14 17 17 17 18 18 22 23 21 16 20 20 20 18 15 10 12 12 11 9 11 16 19 23 25 28 29 29 31 32 30 32 35 34 34 34 33 33 35 33 29
2 3 6 11 15 16 17 22 23 25 24 23 22 22 13 10 15 14 18 14 13 15 8 12 15 19 23 26 27 29 32 34 35 36 36 32 33 35 34 32 30 27 26 27
4 2 3 6 3 11 17 11 19 25 25 23 19 16 13 13 13 15 19 14 13 15 14 12 15 21 24 26 27 28 29 29 32 33 32 31 30 31 34 32 26 25 25 24
9 10 4 6 10 13 5 18 26 22 21 21 21 19 15 16 18 16 9 10 8 12 15 17 19 17 22 24 27 25 25 28 30 30 29 28 28 27 25 27 27 29 33 32
18 12 5 5 10 10 2 6 11 15 11 15 19 15 16 15 14 17 7 6 8 12 17 17 23 16 18 21 24 27 26 28 28 29 27 26 26 25 27 29 28 27 26 26
19 16 10 6 7 4 3 4 6 18 5 8 5 5 6 4 7 2 5 8 9 12 15 14 19 18 21 23 22 25 27 27 29 28 27 28 27 25 24 24 24 24 23 23
13 12 15 12 5 6 5 8 7 4 2 16 16 9 4 4 6 8 7 10 15 19 20 15 11 14 14 20 22 22 23 23 29 32 29 27 26 23 20 19 20 20 21 20
7 9 8 10 6 8 15 2 6 2 19 9 6 5 4 4 5 9 8 9 13 18 21 11 5 3 7 9 13 18 25 27 25 25 26 25 23 22 22 21 20 19 18 17
6 6 3 5 5 5 12 9 8 13 14 14 14 16 14 14 13 9 7 6 8 15 19 13 3 3 5 8 15 19 21 23 24 25 24 25 24 22 20 19 17 15 16 17
3 4 4 3 8 5 9 7 14 16 18 19 17 15 15 14 14 8 3 5 9 6 14 11 3 6 7 8 14 17 23 24 25 27 26 25 24 23 20 18 17 17 18 19
4 1 3 5 6 13 5 16 22 23 21 21 18 12 10 12 7 3 1 1 6 10 7 5 8 11 14 15 19 20 20 20 24 25 23 22 22 21 22 22 19 17 17 15
4 5 4 3 4 7 12 22 19 21 21 20 16 8 11 7 6 5 4 6 8 7 12 11 12 14 19 21 22 19 18 15 14 21 23 22 22 22 22 21 25 20 19 17